Meteorology homepage Current Weather at the Dr. Eugene Chermack
Surface Weather Station at SUNY Oswego









Pressure, temperature, and humidity data

                                          ---------- 10-meter --------   -------------- 2-meter -----------------
Year    mnth   day  hh    mm     ss       TT TTmax TTmin RH Rhmax RHmin TT TTmax TTmin RH Rhmax RHmin Td Tdmax Tdmin

-sfc pressure --- 10-meter --- -- Visibility--
PP PPmax PPmin Tch Tchmax Tchmin Vis Vismax Vismin Current_weather

-- Ground -- --- Precipitation ----
Tg Tgmax Tgmin Vr_daily Vr_month Vr_year
2017	06	27	07	29	58 	  57.7	  58.0	  56.1	  88.6	 90.8	 87.4	  57.8	  58.3	  56.2	  85.0	  86.8	  83.5	  53.3	  53.6	  52.2	 1004.4	 1004.4	 1004.1	  57.7	  58.4	  56.2	65616	 65617	 65617	Clear	  69.4	  71.6	  69.1	  0.00	  2.72	 26.07	
2017	06	27	07	29	28 	  57.7	  58.0	  56.0	  88.5	 91.0	 87.4	  57.8	  58.3	  56.0	  84.9	  87.0	  83.5	  53.3	  53.6	  52.1	 1004.3	 1004.4	 1004.1	  57.8	  58.4	  56.2	65616	 65617	 65617	Clear	  69.5	  71.6	  69.1	  0.00	  2.72	 26.07	
2017	06	27	07	28	58 	  57.7	  58.0	  56.0	  88.5	 91.0	 87.4	  57.8	  58.3	  56.0	  84.9	  87.0	  83.5	  53.3	  53.6	  52.1	 1004.3	 1004.4	 1004.1	  57.8	  58.4	  56.2	65616	 65617	 65617	Clear	  69.4	  71.6	  69.1	  0.00	  2.72	 26.07	
2017	06	27	07	28	28 	  57.7	  58.0	  55.9	  88.4	 91.2	 87.4	  57.8	  58.3	  55.9	  84.9	  87.1	  83.5	  53.3	  53.6	  52.1	 1004.3	 1004.4	 1004.1	  57.8	  58.4	  56.2	65616	 65617	 65617	Clear	  69.5	  71.6	  69.1	  0.00	  2.72	 26.07	
2017	06	27	07	27	58 	  57.7	  58.0	  55.9	  88.4	 91.2	 87.4	  57.8	  58.3	  55.9	  84.8	  87.1	  83.5	  53.3	  53.6	  52.1	 1004.3	 1004.4	 1004.1	  57.8	  58.4	  56.2	65616	 65617	 65617	Clear	  69.4	  71.6	  69.1	  0.00	  2.72	 26.07	
2017	06	27	07	27	28 	  57.7	  58.0	  55.8	  88.4	 91.3	 87.4	  57.8	  58.3	  55.8	  84.8	  87.3	  83.5	  53.3	  53.6	  52.0	 1004.2	 1004.4	 1004.1	  57.8	  58.4	  56.2	65616	 65617	 65617	Clear	  69.4	  71.6	  69.1	  0.00	  2.72	 26.07	
2017	06	27	07	26	58 	  57.7	  58.0	  55.8	  88.4	 91.3	 87.4	  57.8	  58.3	  55.8	  84.8	  87.3	  83.5	  53.3	  53.6	  52.0	 1004.2	 1004.4	 1004.1	  57.8	  58.4	  56.2	65616	 65617	 65617	Clear	  69.4	  71.6	  69.1	  0.00	  2.72	 26.07	
2017	06	27	07	26	28 	  57.7	  58.0	  55.7	  88.5	 91.4	 87.4	  57.8	  58.3	  55.7	  84.8	  87.3	  83.5	  53.3	  53.6	  52.0	 1004.2	 1004.4	 1004.1	  57.8	  58.4	  56.0	65616	 65617	 65617	Clear	  69.4	  71.6	  69.1	  0.00	  2.72	 26.07	
2017	06	27	07	25	58 	  57.7	  58.0	  55.7	  88.5	 91.4	 87.4	  57.8	  58.3	  55.7	  84.8	  87.3	  83.5	  53.2	  53.6	  52.0	 1004.2	 1004.4	 1004.1	  57.8	  58.4	  56.0	65616	 65617	 65617	Clear	  69.4	  71.6	  69.1	  0.00	  2.72	 26.07	
2017	06	27	07	25	28 	  57.7	  58.0	  55.7	  88.6	 91.4	 87.4	  57.8	  58.3	  55.7	  84.8	  87.3	  83.5	  53.2	  53.6	  51.9	 1004.2	 1004.4	 1004.0	  57.8	  58.4	  55.8	65616	 65617	 65617	Clear	  69.4	  71.6	  69.1	  0.00	  2.72	 26.07	
2017	06	27	07	24	58 	  57.7	  58.0	  55.7	  88.7	 91.4	 87.4	  57.8	  58.3	  55.7	  84.8	  87.3	  83.5	  53.2	  53.6	  51.9	 1004.2	 1004.4	 1004.0	  57.8	  58.4	  55.8	65616	 65617	 65617	Clear	  69.5	  71.6	  69.1	  0.00	  2.72	 26.07	
2017	06	27	07	24	28 	  57.8	  58.0	  55.7	  88.8	 91.4	 87.4	  57.9	  58.3	  55.7	  84.8	  87.3	  83.5	  53.2	  53.6	  51.9	 1004.2	 1004.4	 1004.0	  57.8	  58.4	  55.7	65616	 65617	 65617	Clear	  69.5	  71.6	  69.1	  0.00	  2.72	 26.07	
2017	06	27	07	23	58 	  57.8	  58.0	  55.7	  88.7	 91.4	 87.4	  57.9	  58.3	  55.7	  84.7	  87.3	  83.5	  53.2	  53.6	  51.9	 1004.2	 1004.4	 1004.0	  57.8	  58.4	  55.7	65616	 65617	 65617	Clear	  69.5	  71.6	  69.1	  0.00	  2.72	 26.07	
2017	06	27	07	23	28 	  57.8	  58.0	  55.7	  88.6	 91.4	 87.4	  57.9	  58.3	  55.7	  84.5	  87.3	  83.5	  53.1	  53.6	  51.9	 1004.2	 1004.4	 1004.0	  57.8	  58.4	  55.6	65616	 65617	 65617	Clear	  69.5	  71.6	  69.1	  0.00	  2.72	 26.07	
2017	06	27	07	22	58 	  57.8	  58.0	  55.7	  88.6	 91.4	 87.4	  57.9	  58.3	  55.7	  84.4	  87.3	  83.5	  53.1	  53.6	  51.9	 1004.2	 1004.4	 1004.0	  57.8	  58.4	  55.6	65616	 65617	 65617	Clear	  69.4	  71.6	  69.1	  0.00	  2.72	 26.07	
2017	06	27	07	22	28 	  57.8	  58.0	  55.7	  88.5	 91.4	 87.4	  57.9	  58.3	  55.7	  84.3	  87.3	  83.5	  53.1	  53.6	  51.9	 1004.2	 1004.4	 1004.0	  57.9	  58.4	  55.6	65616	 65617	 65617	Clear	  69.5	  71.6	  69.1	  0.00	  2.72	 26.07	
2017	06	27	07	21	58 	  57.8	  58.0	  55.7	  88.5	 91.4	 87.4	  57.9	  58.3	  55.7	  84.2	  87.3	  83.5	  53.1	  53.6	  51.9	 1004.2	 1004.4	 1004.0	  57.9	  58.4	  55.6	65616	 65617	 65617	Clear	  69.5	  71.6	  69.1	  0.00	  2.72	 26.07	
2017	06	27	07	21	28 	  57.8	  58.0	  55.7	  88.4	 91.4	 87.4	  57.9	  58.3	  55.7	  84.0	  87.3	  83.5	  53.1	  53.6	  51.9	 1004.2	 1004.4	 1004.0	  57.9	  58.4	  55.6	65616	 65617	 65617	Clear	  69.4	  71.6	  69.1	  0.00	  2.72	 26.07	
2017	06	27	07	20	58 	  57.8	  58.0	  55.7	  88.2	 91.4	 87.4	  57.9	  58.3	  55.7	  84.0	  87.3	  83.5	  53.2	  53.6	  51.9	 1004.2	 1004.4	 1004.0	  57.9	  58.4	  55.6	65616	 65617	 65617	Clear	  69.4	  71.6	  69.1	  0.00	  2.72	 26.07	
2017	06	27	07	20	28 	  57.8	  58.0	  55.7	  88.1	 91.4	 87.4	  58.0	  58.3	  55.7	  83.9	  87.3	  83.5	  53.2	  53.6	  51.9	 1004.2	 1004.4	 1004.0	  57.9	  58.4	  55.6	65616	 65617	 65617	Clear	  69.4	  71.6	  69.1	  0.00	  2.72	 26.07	
2017	06	27	07	19	58 	  57.8	  58.0	  55.7	  87.9	 91.4	 87.4	  58.0	  58.3	  55.7	  83.8	  87.3	  83.5	  53.2	  53.6	  51.9	 1004.2	 1004.4	 1004.0	  57.9	  58.4	  55.6	65616	 65617	 65617	Clear	  69.5	  71.6	  69.1	  0.00	  2.72	 26.07	
2017	06	27	07	19	28 	  57.8	  58.0	  55.7	  87.8	 91.4	 87.4	  58.0	  58.3	  55.7	  83.8	  87.3	  83.5	  53.2	  53.6	  51.9	 1004.2	 1004.4	 1004.0	  57.9	  58.4	  55.6	65616	 65617	 65617	Clear	  69.5	  71.6	  69.1	  0.00	  2.72	 26.07	
2017	06	27	07	18	58 	  57.8	  58.0	  55.7	  87.7	 91.4	 87.4	  58.0	  58.3	  55.7	  83.8	  87.3	  83.5	  53.2	  53.6	  51.9	 1004.2	 1004.4	 1004.0	  57.9	  58.4	  55.6	65616	 65617	 65617	Clear	  69.5	  71.6	  69.1	  0.00	  2.72	 26.07	
2017	06	27	07	18	28 	  57.8	  58.0	  55.7	  87.6	 91.4	 87.4	  58.0	  58.3	  55.7	  83.7	  87.3	  83.5	  53.3	  53.6	  51.9	 1004.2	 1004.4	 1004.0	  57.9	  58.4	  55.6	65616	 65617	 65617	Clear	  69.5	  71.6	  69.1	  0.00	  2.72	 26.07	
2017	06	27	07	17	58 	  57.9	  58.0	  55.7	  87.5	 91.4	 87.4	  58.1	  58.3	  55.7	  83.7	  87.3	  83.5	  53.3	  53.6	  51.9	 1004.2	 1004.4	 1004.0	  57.9	  58.4	  55.6	65616	 65617	 65617	Clear	  69.5	  71.6	  69.1	  0.00	  2.72	 26.07	
2017	06	27	07	17	28 	  57.9	  58.0	  55.7	  87.4	 91.4	 87.4	  58.1	  58.3	  55.7	  83.7	  87.3	  83.5	  53.4	  53.6	  51.9	 1004.2	 1004.4	 1004.0	  58.0	  58.4	  55.6	65616	 65617	 65617	Clear	  69.5	  71.6	  69.1	  0.00	  2.72	 26.07	
2017	06	27	07	16	58 	  57.9	  58.0	  55.7	  87.4	 91.4	 87.4	  58.1	  58.3	  55.7	  83.8	  87.3	  83.5	  53.4	  53.6	  51.9	 1004.2	 1004.4	 1004.0	  58.0	  58.4	  55.6	65616	 65617	 65617	Clear	  69.5	  71.6	  69.1	  0.00	  2.72	 26.07	
2017	06	27	07	16	28 	  57.9	  58.0	  55.7	  87.4	 91.4	 87.4	  58.1	  58.3	  55.7	  83.9	  87.3	  83.5	  53.4	  53.6	  51.9	 1004.2	 1004.4	 1004.0	  58.0	  58.4	  55.6	65616	 65617	 65617	Clear	  69.5	  71.6	  69.1	  0.00	  2.72	 26.07	
2017	06	27	07	15	58 	  58.0	  58.0	  55.7	  87.4	 91.4	 87.4	  58.2	  58.3	  55.7	  83.8	  87.3	  83.5	  53.4	  53.6	  51.9	 1004.2	 1004.4	 1004.0	  58.0	  58.4	  55.6	65616	 65617	 65617	Clear	  69.5	  71.6	  69.1	  0.00	  2.72	 26.07	
2017	06	27	07	15	28 	  58.0	  58.0	  55.7	  87.4	 91.4	 87.5	  58.2	  58.3	  55.7	  83.8	  87.3	  83.5	  53.4	  53.6	  51.9	 1004.2	 1004.4	 1004.0	  58.1	  58.4	  55.6	65616	 65617	 65617	Clear	  69.5	  71.6	  69.1	  0.00	  2.72	 26.07	
2017	06	27	07	14	58 	  58.0	  58.0	  55.7	  87.5	 91.4	 87.5	  58.2	  58.3	  55.7	  83.8	  87.3	  83.5	  53.4	  53.6	  51.9	 1004.2	 1004.4	 1004.0	  58.1	  58.4	  55.6	65616	 65617	 65617	Clear	  69.5	  71.6	  69.1	  0.00	  2.72	 26.07	
2017	06	27	07	14	28 	  58.0	  58.0	  55.7	  87.6	 91.4	 87.7	  58.2	  58.3	  55.7	  83.9	  87.3	  83.5	  53.5	  53.6	  51.9	 1004.2	 1004.4	 1004.0	  58.1	  58.4	  55.6	65616	 65617	 65617	Clear	  69.5	  71.6	  69.1	  0.00	  2.72	 26.07	
2017	06	27	07	13	58 	  58.0	  58.0	  55.7	  87.7	 91.4	 87.7	  58.2	  58.3	  55.7	  84.0	  87.3	  83.5	  53.5	  53.6	  51.9	 1004.2	 1004.4	 1004.0	  58.1	  58.4	  55.6	65616	 65617	 65617	Clear	  69.5	  71.6	  69.1	  0.00	  2.72	 26.07	
2017	06	27	07	13	28 	  58.0	  58.0	  55.7	  87.8	 91.4	 87.9	  58.3	  58.3	  55.7	  84.1	  87.3	  83.5	  53.5	  53.6	  51.9	 1004.2	 1004.4	 1004.0	  58.2	  58.4	  55.6	65616	 65617	 65617	Clear	  69.5	  71.6	  69.1	  0.00	  2.72	 26.07	
2017	06	27	07	12	58 	  58.0	  58.0	  55.7	  87.9	 91.4	 87.9	  58.3	  58.3	  55.7	  84.1	  87.3	  83.5	  53.5	  53.6	  51.9	 1004.2	 1004.4	 1004.0	  58.2	  58.4	  55.6	65616	 65617	 65617	Clear	  69.5	  71.6	  69.1	  0.00	  2.72	 26.07	
2017	06	27	07	12	28 	  58.0	  58.0	  55.7	  88.0	 91.4	 87.9	  58.3	  58.3	  55.7	  84.1	  87.3	  83.5	  53.5	  53.6	  51.9	 1004.2	 1004.4	 1003.9	  58.3	  58.4	  55.6	65616	 65617	 65617	Clear	  69.5	  71.6	  69.1	  0.00	  2.72	 26.07	
2017	06	27	07	11	58 	  58.0	  58.0	  55.7	  88.0	 91.4	 87.9	  58.3	  58.3	  55.7	  84.0	  87.3	  83.5	  53.5	  53.6	  51.9	 1004.2	 1004.4	 1003.9	  58.3	  58.4	  55.6	65616	 65617	 65617	Clear	  69.5	  71.6	  69.1	  0.00	  2.72	 26.07	
2017	06	27	07	11	28 	  58.0	  58.0	  55.7	  87.9	 91.4	 87.9	  58.3	  58.3	  55.7	  83.8	  87.3	  83.5	  53.5	  53.6	  51.9	 1004.2	 1004.4	 1003.9	  58.2	  58.4	  55.6	65616	 65617	 65617	Clear	  69.5	  71.6	  69.1	  0.00	  2.72	 26.07	
2017	06	27	07	10	58 	  58.0	  58.0	  55.7	  87.9	 91.4	 87.9	  58.3	  58.3	  55.7	  83.8	  87.3	  83.5	  53.5	  53.6	  51.9	 1004.2	 1004.4	 1003.9	  58.2	  58.4	  55.6	65616	 65617	 65617	Clear	  69.5	  71.6	  69.1	  0.00	  2.72	 26.07	
2017	06	27	07	10	28 	  58.0	  58.0	  55.7	  88.0	 91.4	 87.9	  58.3	  58.3	  55.7	  83.9	  87.3	  83.5	  53.5	  53.6	  51.9	 1004.2	 1004.4	 1003.9	  58.3	  58.4	  55.6	65616	 65617	 65617	Clear	  69.5	  71.6	  69.1	  0.00	  2.72	 26.07	
2017	06	27	07	09	58 	  58.0	  58.0	  55.7	  88.0	 91.4	 87.9	  58.3	  58.3	  55.7	  84.0	  87.3	  83.5	  53.5	  53.6	  51.9	 1004.2	 1004.4	 1003.9	  58.3	  58.4	  55.6	65616	 65617	 65617	Clear	  69.5	  71.6	  69.1	  0.00	  2.72	 26.07	
2017	06	27	07	09	28 	  58.0	  58.0	  55.7	  88.0	 91.4	 87.9	  58.3	  58.3	  55.7	  83.9	  87.3	  83.5	  53.5	  53.6	  51.9	 1004.2	 1004.4	 1003.9	  58.3	  58.4	  55.6	65616	 65617	 65617	Clear	  69.5	  71.6	  69.1	  0.00	  2.72	 26.07	
2017	06	27	07	08	58 	  58.0	  58.0	  55.7	  88.0	 91.4	 87.9	  58.3	  58.3	  55.7	  83.9	  87.3	  83.5	  53.5	  53.6	  51.9	 1004.2	 1004.4	 1003.9	  58.3	  58.4	  55.6	65616	 65617	 65617	Clear	  69.5	  71.6	  69.1	  0.00	  2.72	 26.07	
2017	06	27	07	08	28 	  58.0	  58.0	  55.7	  88.0	 91.4	 87.9	  58.3	  58.3	  55.7	  84.1	  87.3	  83.5	  53.5	  53.6	  51.9	 1004.2	 1004.4	 1003.9	  58.3	  58.4	  55.6	65616	 65617	 65617	Clear	  69.5	  71.6	  69.1	  0.00	  2.72	 26.07	
2017	06	27	07	07	58 	  58.0	  58.0	  55.7	  88.1	 91.4	 87.9	  58.3	  58.3	  55.7	  84.2	  87.3	  83.5	  53.5	  53.6	  51.9	 1004.2	 1004.4	 1003.9	  58.3	  58.4	  55.6	65616	 65617	 65617	Clear	  69.5	  71.6	  69.1	  0.00	  2.72	 26.07	
2017	06	27	07	07	28 	  58.0	  58.0	  55.7	  88.1	 91.6	 87.9	  58.3	  58.3	  55.6	  84.2	  87.4	  83.5	  53.4	  53.6	  51.9	 1004.3	 1004.4	 1003.9	  58.3	  58.4	  55.6	65616	 65617	 65617	Clear	  69.5	  71.6	  69.1	  0.00	  2.72	 26.07	
2017	06	27	07	06	58 	  58.0	  58.0	  55.7	  88.1	 91.6	 87.9	  58.3	  58.3	  55.6	  84.4	  87.4	  83.5	  53.4	  53.6	  51.9	 1004.3	 1004.4	 1003.9	  58.3	  58.4	  55.6	65616	 65617	 65617	Clear	  69.5	  71.6	  69.1	  0.00	  2.72	 26.07	
2017	06	27	07	06	28 	  58.0	  57.9	  55.6	  88.2	 91.7	 87.9	  58.3	  58.3	  55.6	  84.4	  87.5	  83.5	  53.4	  53.6	  51.9	 1004.3	 1004.4	 1003.9	  58.4	  58.4	  55.6	65616	 65617	 65617	Clear	  69.5	  71.6	  69.1	  0.00	  2.72	 26.07	
2017	06	27	07	05	58 	  57.9	  57.9	  55.6	  88.3	 91.7	 87.9	  58.2	  58.3	  55.6	  84.5	  87.5	  83.5	  53.3	  53.6	  51.9	 1004.3	 1004.4	 1003.9	  58.4	  58.4	  55.6	65616	 65617	 65617	Clear	  69.5	  71.6	  69.1	  0.00	  2.72	 26.07	
2017	06	27	07	05	28 	  57.9	  57.9	  55.6	  88.3	 91.9	 87.9	  58.2	  58.3	  55.5	  84.5	  87.7	  83.5	  53.3	  53.6	  51.9	 1004.3	 1004.4	 1003.9	  58.3	  58.4	  55.6	65616	 65617	 65617	Clear	  69.5	  71.6	  69.1	  0.00	  2.72	 26.07	
2017	06	27	07	04	58 	  57.9	  57.9	  55.6	  88.4	 91.9	 87.9	  58.1	  58.3	  55.5	  84.4	  87.7	  83.5	  53.3	  53.6	  51.9	 1004.3	 1004.4	 1003.9	  58.3	  58.4	  55.6	65616	 65617	 65617	Clear	  69.5	  71.6	  69.1	  0.00	  2.72	 26.07	
2017	06	27	07	04	28 	  57.9	  57.8	  55.5	  88.4	 91.9	 87.9	  58.1	  58.3	  55.5	  84.4	  87.8	  83.5	  53.2	  53.6	  51.9	 1004.3	 1004.4	 1003.9	  58.3	  58.4	  55.6	65616	 65617	 65617	Clear	  69.5	  71.6	  69.1	  0.00	  2.72	 26.07	
2017	06	27	07	03	58 	  57.8	  57.8	  55.5	  88.4	 91.9	 87.9	  58.1	  58.3	  55.5	  84.3	  87.8	  83.5	  53.2	  53.6	  51.9	 1004.4	 1004.4	 1003.9	  58.3	  58.4	  55.6	65616	 65617	 65617	Clear	  69.5	  71.6	  69.1	  0.00	  2.72	 26.07	
2017	06	27	07	03	28 	  57.8	  57.8	  55.5	  88.4	 91.9	 87.9	  58.0	  58.3	  55.4	  84.3	  87.9	  83.5	  53.2	  53.6	  51.9	 1004.4	 1004.4	 1003.8	  58.2	  58.4	  55.6	65616	 65617	 65617	Clear	  69.5	  71.6	  69.1	  0.00	  2.72	 26.07	
2017	06	27	07	02	58 	  57.8	  57.8	  55.5	  88.4	 91.9	 87.9	  58.0	  58.3	  55.4	  84.2	  87.9	  83.5	  53.1	  53.6	  51.9	 1004.3	 1004.4	 1003.8	  58.2	  58.4	  55.6	65616	 65617	 65617	Clear	  69.5	  71.6	  69.1	  0.00	  2.72	 26.07	
2017	06	27	07	02	28 	  57.8	  57.8	  55.5	  88.4	 91.9	 87.9	  58.0	  58.3	  55.3	  84.2	  88.1	  83.5	  53.1	  53.6	  51.9	 1004.4	 1004.4	 1003.8	  58.0	  58.4	  55.5	65616	 65617	 65617	Clear	  69.5	  71.6	  69.1	  0.00	  2.72	 26.07	
2017	06	27	07	01	58 	  57.7	  57.8	  55.5	  88.4	 91.9	 87.9	  58.0	  58.3	  55.3	  84.2	  88.1	  83.5	  53.1	  53.6	  51.9	 1004.3	 1004.4	 1003.8	  58.0	  58.4	  55.5	65616	 65617	 65617	Clear	  69.5	  71.6	  69.1	  0.00	  2.72	 26.07	
2017	06	27	07	01	28 	  57.7	  57.8	  55.5	  88.4	 91.9	 87.9	  58.0	  58.3	  55.3	  84.2	  88.2	  83.5	  53.0	  53.6	  51.9	 1004.3	 1004.4	 1003.8	  58.0	  58.4	  55.4	65616	 65617	 65617	Clear	  69.5	  71.6	  69.1	  0.00	  2.72	 26.07	
2017	06	27	07	00	58 	  57.7	  57.8	  55.5	  88.4	 91.9	 87.9	  57.9	  58.3	  55.3	  84.1	  88.2	  83.5	  53.0	  53.6	  51.9	 1004.3	 1004.4	 1003.8	  58.0	  58.4	  55.4	65616	 65617	 65617	Clear	  69.6	  71.6	  69.1	  0.00	  2.72	 26.07	
2017	06	27	07	00	28 	  57.7	  57.8	  55.5	  88.3	 92.0	 87.9	  57.9	  58.3	  55.2	  84.0	  88.3	  83.5	  53.0	  53.6	  51.8	 1004.3	 1004.4	 1003.8	  58.0	  58.4	  55.4	65616	 65617	 65617	Clear	  69.5	  71.6	  69.1	  0.00	  2.72	 26.07	
2017	06	27	06	59	58 	  57.7	  57.8	  55.5	  88.3	 92.0	 87.9	  57.9	  58.3	  55.2	  83.9	  88.3	  83.5	  53.0	  53.6	  51.8	 1004.3	 1004.4	 1003.8	  58.0	  58.4	  55.4	65616	 65617	 65617	Clear	  69.5	  71.6	  69.1	  0.00	  2.72	 26.07	
2017	06	27	06	59	28 	  57.7	  57.8	  55.4	  88.2	 92.0	 87.9	  57.9	  58.3	  55.2	  83.8	  88.4	  83.5	  53.0	  53.6	  51.8	 1004.3	 1004.4	 1003.8	  57.9	  58.4	  55.4	65616	 65617	 65617	Clear	  69.6	  71.6	  69.1	  0.00	  2.72	 26.07	
2017	06	27	06	58	58 	  57.7	  57.8	  55.4	  88.2	 92.0	 87.9	  57.9	  58.3	  55.2	  83.8	  88.4	  83.5	  53.0	  53.6	  51.8	 1004.3	 1004.4	 1003.8	  57.9	  58.4	  55.4	65616	 65617	 65617	Clear	  69.6	  71.6	  69.1	  0.00	  2.72	 26.07	
2017	06	27	06	58	28 	  57.7	  57.8	  55.4	  88.2	 92.1	 87.9	  57.9	  58.3	  55.1	  83.8	  88.5	  83.5	  53.0	  53.6	  51.8	 1004.3	 1004.4	 1003.8	  57.9	  58.4	  55.3	65616	 65617	 65617	Clear	  69.5	  71.6	  69.1	  0.00	  2.72	 26.07	
2017	06	27	06	57	58 	  57.7	  57.8	  55.4	  88.2	 92.1	 87.9	  57.9	  58.3	  55.1	  83.8	  88.5	  83.5	  53.1	  53.6	  51.8	 1004.3	 1004.4	 1003.8	  57.9	  58.4	  55.3	65616	 65617	 65617	Clear	  69.6	  71.6	  69.1	  0.00	  2.72	 26.07	
2017	06	27	06	57	28 	  57.7	  57.8	  55.4	  88.1	 92.1	 87.9	  57.9	  58.3	  55.1	  83.6	  88.5	  83.5	  53.1	  53.6	  51.7	 1004.3	 1004.4	 1003.8	  57.9	  58.4	  55.2	65616	 65617	 65617	Clear	  69.6	  71.6	  69.1	  0.00	  2.72	 26.07	
2017	06	27	06	56	58 	  57.7	  57.8	  55.4	  88.1	 92.1	 87.9	  57.9	  58.3	  55.1	  83.6	  88.5	  83.5	  53.1	  53.6	  51.7	 1004.3	 1004.4	 1003.8	  57.9	  58.4	  55.2	65616	 65617	 65617	Clear	  69.6	  71.6	  69.1	  0.00	  2.72	 26.07	
2017	06	27	06	56	28 	  57.7	  57.8	  55.3	  88.1	 92.1	 87.9	  57.9	  58.3	  55.1	  83.7	  88.5	  83.5	  53.2	  53.6	  51.7	 1004.3	 1004.4	 1003.8	  57.9	  58.4	  55.1	65616	 65617	 65617	Clear	  69.6	  71.6	  69.1	  0.00	  2.72	 26.07	
2017	06	27	06	55	58 	  57.7	  57.8	  55.3	  88.1	 92.1	 87.9	  57.9	  58.3	  55.1	  83.7	  88.5	  83.5	  53.2	  53.6	  51.7	 1004.3	 1004.4	 1003.8	  57.9	  58.4	  55.1	65616	 65617	 65617	Clear	  69.6	  71.6	  69.1	  0.00	  2.72	 26.07	
2017	06	27	06	55	28 	  57.7	  57.8	  55.3	  88.1	 92.1	 87.9	  57.9	  58.3	  55.1	  83.8	  88.5	  83.5	  53.2	  53.6	  51.6	 1004.3	 1004.4	 1003.8	  57.8	  58.4	  55.1	65616	 65617	 65617	Clear	  69.6	  71.6	  69.1	  0.00	  2.72	 26.07	
2017	06	27	06	54	58 	  57.7	  57.8	  55.3	  88.1	 92.1	 87.9	  58.0	  58.3	  55.1	  83.8	  88.5	  83.5	  53.2	  53.6	  51.6	 1004.3	 1004.4	 1003.8	  57.8	  58.4	  55.1	65616	 65617	 65617	Clear	  69.6	  71.6	  69.1	  0.00	  2.72	 26.07	
2017	06	27	06	54	28 	  57.7	  57.8	  55.3	  88.1	 92.1	 87.9	  58.0	  58.3	  55.1	  83.8	  88.5	  83.5	  53.3	  53.6	  51.5	 1004.3	 1004.4	 1003.8	  57.8	  58.4	  55.1	65616	 65617	 65617	Clear	  69.6	  71.6	  69.1	  0.00	  2.72	 26.07	
2017	06	27	06	53	58 	  57.7	  57.8	  55.3	  88.0	 92.1	 87.9	  58.0	  58.3	  55.1	  83.7	  88.5	  83.5	  53.3	  53.6	  51.5	 1004.3	 1004.4	 1003.8	  57.8	  58.4	  55.1	65616	 65617	 65617	Clear	  69.6	  71.6	  69.1	  0.00	  2.72	 26.07	
2017	06	27	06	53	28 	  57.8	  57.8	  55.3	  88.0	 92.1	 87.9	  58.1	  58.3	  55.1	  83.7	  88.5	  83.5	  53.3	  53.6	  51.5	 1004.3	 1004.4	 1003.8	  57.9	  58.4	  55.1	65616	 65617	 65617	Clear	  69.6	  71.6	  69.1	  0.00	  2.72	 26.07	
2017	06	27	06	52	58 	  57.8	  57.8	  55.3	  88.0	 92.1	 87.9	  58.1	  58.3	  55.1	  83.7	  88.5	  83.5	  53.4	  53.6	  51.5	 1004.3	 1004.4	 1003.8	  57.9	  58.4	  55.1	65616	 65617	 65617	Clear	  69.6	  71.6	  69.1	  0.00	  2.72	 26.07	
2017	06	27	06	52	28 	  57.8	  57.8	  55.3	  88.0	 92.1	 87.9	  58.2	  58.3	  55.1	  83.7	  88.5	  83.5	  53.4	  53.6	  51.5	 1004.3	 1004.4	 1003.8	  58.0	  58.4	  55.1	65616	 65617	 65617	Clear	  69.6	  71.6	  69.1	  0.00	  2.72	 26.07	
2017	06	27	06	51	58 	  57.8	  57.8	  55.3	  88.0	 92.1	 87.9	  58.2	  58.3	  55.1	  83.6	  88.5	  83.5	  53.4	  53.6	  51.5	 1004.3	 1004.4	 1003.8	  58.0	  58.4	  55.1	65616	 65617	 65617	Clear	  69.6	  71.6	  69.1	  0.00	  2.72	 26.07	
2017	06	27	06	51	28 	  57.8	  57.8	  55.3	  88.0	 92.1	 87.9	  58.2	  58.3	  55.1	  83.6	  88.5	  83.5	  53.4	  53.6	  51.5	 1004.3	 1004.4	 1003.8	  58.1	  58.4	  55.1	65616	 65617	 65617	Clear	  69.6	  71.6	  69.1	  0.00	  2.72	 26.07	
2017	06	27	06	50	58 	  57.8	  57.8	  55.3	  87.9	 92.1	 87.9	  58.3	  58.3	  55.1	  83.6	  88.5	  83.5	  53.5	  53.6	  51.5	 1004.3	 1004.4	 1003.8	  58.1	  58.4	  55.1	65616	 65617	 65617	Clear	  69.6	  71.6	  69.1	  0.00	  2.72	 26.07	
2017	06	27	06	50	28 	  57.8	  57.8	  55.3	  87.9	 92.1	 88.0	  58.3	  58.3	  55.1	  83.5	  88.5	  83.6	  53.5	  53.6	  51.5	 1004.3	 1004.4	 1003.8	  57.0	  58.4	  54.9	65616	 65617	 65617	Clear	  69.6	  71.6	  69.1	  0.00	  2.72	 26.07	
2017	06	27	06	49	58 	  57.8	  57.8	  55.3	  88.0	 92.1	 88.0	  58.3	  58.3	  55.1	  83.6	  88.5	  83.6	  53.5	  53.6	  51.5	 1004.3	 1004.4	 1003.8	  57.0	  58.4	  54.9	65616	 65617	 65617	Clear	  69.6	  71.6	  69.1	  0.00	  2.72	 26.07	
2017	06	27	06	49	28 	  57.8	  57.8	  55.3	  88.0	 92.1	 88.2	  58.3	  58.3	  55.1	  83.8	  88.5	  83.9	  53.5	  53.6	  51.5	 1004.3	 1004.4	 1003.8	  58.3	  58.4	  54.9	65616	 65617	 65617	Clear	  69.6	  71.6	  69.1	  0.00	  2.72	 26.07	
2017	06	27	06	48	58 	  57.8	  57.8	  55.3	  88.2	 92.1	 88.2	  58.3	  58.3	  55.1	  83.9	  88.5	  83.9	  53.5	  53.6	  51.5	 1004.3	 1004.4	 1003.8	  58.3	  58.4	  54.9	65616	 65617	 65617	Clear	  69.6	  71.6	  69.1	  0.00	  2.72	 26.07	
2017	06	27	06	48	28 	  57.8	  57.8	  55.3	  88.2	 92.1	 88.2	  58.3	  58.2	  55.0	  84.1	  88.5	  84.3	  53.5	  53.6	  51.5	 1004.3	 1004.4	 1003.8	  58.3	  58.4	  54.9	65616	 65617	 65617	Clear	  69.6	  71.6	  69.1	  0.00	  2.72	 26.07	
2017	06	27	06	47	58 	  57.8	  57.8	  55.3	  88.2	 92.1	 88.2	  58.2	  58.2	  55.0	  84.3	  88.5	  84.3	  53.5	  53.6	  51.5	 1004.3	 1004.4	 1003.8	  58.3	  58.4	  54.9	65616	 65617	 65617	Clear	  69.6	  71.6	  69.1	  0.00	  2.72	 26.07	
2017	06	27	06	47	28 	  57.8	  57.7	  55.2	  88.3	 92.1	 88.3	  58.2	  58.2	  54.9	  84.5	  88.6	  84.7	  53.5	  53.6	  51.5	 1004.3	 1004.4	 1003.8	  58.4	  58.4	  54.9	65616	 65617	 65617	Clear	  69.6	  71.6	  69.1	  0.00	  2.72	 26.07	
2017	06	27	06	46	58 	  57.7	  57.7	  55.2	  88.3	 92.1	 88.3	  58.2	  58.2	  54.9	  84.7	  88.6	  84.7	  53.5	  53.6	  51.5	 1004.3	 1004.4	 1003.8	  58.4	  58.4	  54.9	65616	 65617	 65617	Clear	  69.6	  71.6	  69.1	  0.00	  2.72	 26.07	
2017	06	27	06	46	28 	  57.7	  57.7	  55.1	  88.4	 92.1	 88.5	  58.1	  58.1	  54.8	  84.8	  89.0	  84.9	  53.5	  53.6	  51.5	 1004.3	 1004.4	 1003.8	  58.3	  58.3	  54.9	65616	 65617	 65617	Clear	  69.6	  71.6	  69.1	  0.00	  2.72	 26.07	
2017	06	27	06	45	58 	  57.7	  57.7	  55.1	  88.5	 92.1	 88.5	  58.1	  58.1	  54.8	  84.9	  89.0	  84.9	  53.4	  53.6	  51.5	 1004.3	 1004.4	 1003.8	  58.3	  58.3	  54.9	65616	 65617	 65617	Clear	  69.6	  71.6	  69.1	  0.00	  2.72	 26.07	
2017	06	27	06	45	28 	  57.7	  57.6	  55.1	  88.5	 92.4	 88.5	  58.0	  58.0	  54.7	  85.0	  89.3	  85.0	  53.4	  53.5	  51.5	 1004.3	 1004.4	 1003.8	  58.3	  58.3	  54.9	65616	 65617	 65617	Clear	  69.6	  71.6	  69.1	  0.00	  2.72	 26.07	
2017	06	27	06	44	58 	  57.6	  57.6	  55.1	  88.5	 92.4	 88.5	  58.0	  58.0	  54.7	  85.0	  89.3	  85.0	  53.4	  53.5	  51.5	 1004.3	 1004.4	 1003.8	  58.3	  58.3	  54.9	65616	 65617	 65617	Clear	  69.6	  71.6	  69.1	  0.00	  2.72	 26.07	
2017	06	27	06	44	28 	  57.6	  57.6	  55.0	  88.5	 92.6	 88.5	  57.9	  57.9	  54.7	  85.0	  89.6	  85.0	  53.4	  53.4	  51.5	 1004.3	 1004.4	 1003.8	  58.2	  58.2	  54.9	65616	 65617	 65617	Clear	  69.6	  71.6	  69.1	  0.00	  2.72	 26.07	
2017	06	27	06	43	58 	  57.6	  57.6	  55.0	  88.5	 92.6	 88.5	  57.9	  57.9	  54.7	  85.0	  89.6	  85.0	  53.3	  53.4	  51.5	 1004.3	 1004.4	 1003.8	  58.2	  58.2	  54.9	65616	 65617	 65617	Clear	  69.6	  71.6	  69.1	  0.00	  2.72	 26.07	
2017	06	27	06	43	28 	  57.5	  57.5	  55.0	  88.5	 92.8	 88.6	  57.9	  57.8	  54.6	  85.1	  89.7	  85.2	  53.3	  53.4	  51.5	 1004.3	 1004.4	 1003.8	  58.0	  58.0	  54.7	65616	 65617	 65617	Clear	  69.6	  71.6	  69.1	  0.00	  2.72	 26.07	
2017	06	27	06	42	58 	  57.5	  57.5	  55.0	  88.6	 92.8	 88.6	  57.8	  57.8	  54.6	  85.2	  89.7	  85.2	  53.3	  53.4	  51.5	 1004.3	 1004.4	 1003.8	  58.0	  58.0	  54.7	65616	 65617	 65617	Clear	  69.6	  71.6	  69.1	  0.00	  2.72	 26.07	
2017	06	27	06	42	28 	  57.5	  57.5	  55.0	  88.6	 92.9	 88.7	  57.8	  57.7	  54.6	  85.3	  89.8	  85.4	  53.2	  53.4	  51.5	 1004.3	 1004.4	 1003.8	  57.9	  57.9	  54.7	65616	 65617	 65617	Clear	  69.6	  71.6	  69.1	  0.00	  2.72	 26.07	
2017	06	27	06	41	58 	  57.5	  57.5	  55.0	  88.7	 92.9	 88.7	  57.7	  57.7	  54.6	  85.4	  89.8	  85.4	  53.2	  53.4	  51.5	 1004.3	 1004.4	 1003.8	  57.9	  57.9	  54.7	65616	 65617	 65617	Clear	  69.6	  71.6	  69.1	  0.00	  2.72	 26.07	
2017	06	27	06	41	28 	  57.4	  57.4	  55.0	  88.7	 93.0	 88.8	  57.7	  57.6	  54.6	  85.5	  90.0	  85.5	  53.1	  53.3	  51.5	 1004.3	 1004.3	 1003.8	  57.9	  57.9	  54.6	65616	 65617	 65617	Clear	  69.7	  71.6	  69.1	  0.00	  2.72	 26.07	
2017	06	27	06	40	58 	  57.4	  57.4	  55.0	  88.8	 93.0	 88.8	  57.6	  57.6	  54.6	  85.5	  90.0	  85.5	  53.0	  53.3	  51.5	 1004.3	 1004.3	 1003.8	  57.9	  57.9	  54.6	65616	 65617	 65617	Clear	  69.6	  71.6	  69.1	  0.00	  2.72	 26.07	
2017	06	27	06	40	28 	  57.4	  57.3	  55.0	  88.9	 93.1	 89.0	  57.6	  57.5	  54.5	  85.5	  90.2	  85.7	  53.0	  53.2	  51.5	 1004.3	 1004.3	 1003.8	  57.8	  57.8	  54.6	65616	 65617	 65617	Clear	  69.6	  71.6	  69.1	  0.00	  2.72	 26.07	
2017	06	27	06	39	58 	  57.3	  57.3	  55.0	  89.0	 93.1	 89.0	  57.5	  57.5	  54.5	  85.7	  90.2	  85.7	  52.9	  53.2	  51.5	 1004.3	 1004.3	 1003.8	  57.8	  57.8	  54.6	65616	 65617	 65617	Clear	  69.6	  71.6	  69.1	  0.00	  2.72	 26.07	
2017	06	27	06	39	28 	  57.3	  57.2	  55.0	  89.1	 93.3	 89.2	  57.4	  57.4	  54.4	  85.8	  90.7	  85.7	  52.9	  53.1	  51.5	 1004.3	 1004.3	 1003.8	  57.8	  57.8	  54.6	65616	 65617	 51447	Clear	  69.6	  71.6	  69.1	  0.00	  2.72	 26.07	
2017	06	27	06	38	58 	  57.2	  57.2	  55.0	  89.2	 93.3	 89.2	  57.4	  57.4	  54.4	  85.8	  90.7	  85.7	  52.8	  53.1	  51.5	 1004.3	 1004.3	 1003.8	  57.8	  57.8	  54.6	65616	 65617	 51447	Clear	  69.6	  71.6	  69.1	  0.00	  2.72	 26.07	
2017	06	27	06	38	28 	  57.2	  57.1	  54.9	  89.2	 93.6	 89.4	  57.3	  57.2	  54.3	  85.7	  91.2	  85.7	  52.8	  53.0	  51.5	 1004.2	 1004.2	 1003.8	  57.5	  57.5	  54.6	65616	 65617	 51447	Clear	  69.6	  71.6	  69.1	  0.00	  2.72	 26.07	
2017	06	27	06	37	58 	  57.1	  57.1	  54.9	  89.4	 93.6	 89.4	  57.2	  57.2	  54.3	  85.7	  91.2	  85.7	  52.7	  53.0	  51.5	 1004.2	 1004.2	 1003.8	  57.5	  57.5	  54.6	65616	 65617	 51447	Clear	  69.6	  71.6	  69.1	  0.00	  2.72	 26.07	
2017	06	27	06	37	28 	  57.0	  57.0	  54.9	  89.5	 93.9	 89.6	  57.1	  57.1	  54.2	  85.8	  91.7	  85.7	  52.7	  52.9	  51.5	 1004.2	 1004.2	 1003.8	  57.4	  57.4	  54.5	65616	 65617	 51447	Clear	  69.6	  71.6	  69.1	  0.00	  2.72	 26.07	
2017	06	27	06	36	58 	  57.0	  57.0	  54.9	  89.6	 93.9	 89.6	  57.1	  57.1	  54.2	  85.8	  91.7	  85.7	  52.6	  52.9	  51.5	 1004.2	 1004.2	 1003.8	  57.4	  57.4	  54.5	65616	 65617	 51447	Clear	  69.7	  71.6	  69.1	  0.00	  2.72	 26.07	
2017	06	27	06	36	28 	  56.9	  56.8	  54.8	  89.6	 94.5	 89.6	  57.0	  57.0	  54.1	  85.7	  92.2	  85.7	  52.6	  52.7	  51.5	 1004.2	 1004.2	 1003.8	  57.2	  57.2	  54.5	65616	 65617	 51447	Clear	  69.7	  71.6	  69.1	  0.00	  2.72	 26.07	
2017	06	27	06	35	58 	  56.8	  56.8	  54.8	  89.6	 94.5	 89.6	  57.0	  57.0	  54.1	  85.7	  92.2	  85.7	  52.5	  52.7	  51.5	 1004.2	 1004.2	 1003.8	  57.2	  57.2	  54.5	65616	 65617	 51447	Clear	  69.7	  71.6	  69.1	  0.00	  2.72	 26.07	
2017	06	27	06	35	28 	  56.7	  56.7	  54.7	  89.7	 95.1	 89.8	  56.9	  56.8	  54.0	  85.7	  92.6	  85.8	  52.5	  52.6	  51.5	 1004.2	 1004.2	 1003.8	  57.1	  57.1	  54.4	65616	 65617	 51447	Clear	  69.7	  71.6	  69.1	  0.00	  2.72	 26.07	
2017	06	27	06	34	58 	  56.7	  56.7	  54.7	  89.8	 95.1	 89.8	  56.8	  56.8	  54.0	  85.8	  92.6	  85.8	  52.4	  52.6	  51.5	 1004.1	 1004.2	 1003.8	  57.1	  57.1	  54.4	65616	 65617	 51447	Clear	  69.7	  71.6	  69.1	  0.00	  2.72	 26.07	
2017	06	27	06	34	28 	  56.6	  56.5	  54.5	  89.9	 95.8	 89.9	  56.8	  56.7	  53.9	  85.9	  92.9	  86.0	  52.4	  52.6	  51.5	 1004.1	 1004.2	 1003.8	  57.0	  57.0	  54.2	65616	 65617	 51447	Clear	  69.7	  71.6	  69.1	  0.00	  2.72	 26.07	
2017	06	27	06	33	58 	  56.5	  56.5	  54.5	  89.9	 95.8	 89.9	  56.7	  56.7	  53.9	  86.0	  92.9	  86.0	  52.4	  52.6	  51.5	 1004.1	 1004.2	 1003.8	  57.0	  57.0	  54.2	65616	 65617	 51447	Clear	  69.7	  71.6	  69.1	  0.00	  2.72	 26.07	
2017	06	27	06	33	28 	  56.5	  56.4	  54.4	  90.0	 96.3	 90.1	  56.6	  56.6	  53.9	  86.1	  93.1	  86.1	  52.3	  52.5	  51.5	 1004.1	 1004.2	 1003.8	  57.0	  57.0	  54.0	65616	 65617	 51447	Clear	  69.7	  71.6	  69.1	  0.00	  2.72	 26.07	
2017	06	27	06	32	58 	  56.4	  56.4	  54.4	  90.1	 96.3	 90.1	  56.6	  56.6	  53.9	  86.2	  93.1	  86.1	  52.3	  52.5	  51.5	 1004.1	 1004.2	 1003.8	  57.0	  57.0	  54.0	65616	 65617	 51447	Clear	  69.7	  71.6	  69.1	  0.00	  2.72	 26.07	
2017	06	27	06	32	28 	  56.3	  56.3	  54.3	  90.1	 96.8	 90.2	  56.5	  56.4	  53.9	  86.1	  93.1	  86.2	  52.2	  52.4	  51.5	 1004.1	 1004.2	 1003.8	  56.7	  56.7	  54.0	65616	 65617	 51447	Clear	  69.7	  71.6	  69.1	  0.00	  2.72	 26.07	
2017	06	27	06	31	58 	  56.3	  56.3	  54.3	  90.2	 96.8	 90.2	  56.4	  56.4	  53.9	  86.2	  93.1	  86.2	  52.2	  52.4	  51.5	 1004.1	 1004.2	 1003.8	  56.7	  56.7	  54.0	65616	 65617	 51447	Clear	  69.7	  71.6	  69.1	  0.00	  2.72	 26.07	
2017	06	27	06	31	28 	  56.2	  56.2	  54.2	  90.4	 97.1	 90.5	  56.3	  56.3	  53.8	  86.5	  93.1	  86.5	  52.2	  52.4	  51.5	 1004.1	 1004.1	 1003.8	  56.2	  56.5	  53.9	65616	 65617	 51447	Clear	  69.7	  71.6	  69.1	  0.00	  2.72	 26.07	
2017	06	27	06	30	58 	  56.2	  56.2	  54.2	  90.5	 97.1	 90.5	  56.3	  56.3	  53.8	  86.7	  93.1	  86.5	  52.1	  52.4	  51.5	 1004.1	 1004.1	 1003.8	  56.2	  56.5	  53.9	65616	 65617	 51447	Clear	  69.7	  71.6	  69.1	  0.00	  2.72	 26.07	
2017	06	27	06	30	28 	  56.1	  56.0	  54.2	  90.7	 97.2	 90.8	  56.2	  56.1	  53.8	  86.8	  93.1	  86.5	  52.1	  52.2	  51.5	 1004.1	 1004.1	 1003.8	  56.5	  56.5	  53.9	65616	 65617	 51447	Clear	  69.7	  71.6	  69.1	  0.00	  2.72	 26.07	
2017	06	27	06	29	58 	  56.0	  56.0	  54.2	  90.8	 97.2	 90.8	  56.1	  56.1	  53.8	  86.8	  93.1	  86.5	  52.1	  52.2	  51.5	 1004.1	 1004.1	 1003.8	  56.5	  56.5	  53.9	65616	 65617	 51447	Clear	  69.7	  71.6	  69.1	  0.00	  2.72	 26.07	
2017	06	27	06	29	28 	  56.0	  56.0	  54.2	  90.9	 97.2	 90.8	  56.0	  56.0	  53.8	  87.0	  93.1	  86.5	  52.0	  52.1	  51.5	 1004.1	 1004.1	 1003.8	  56.4	  56.4	  53.8	65616	 65617	 51447	Clear	  69.7	  71.6	  69.1	  0.00	  2.72	 26.07	
2017	06	27	06	28	58 	  55.9	  56.0	  54.2	  91.0	 97.2	 90.8	  56.0	  56.0	  53.8	  87.0	  93.1	  86.5	  52.0	  52.1	  51.5	 1004.1	 1004.1	 1003.8	  56.4	  56.4	  53.8	65616	 65617	 51447	Clear	  69.7	  71.6	  69.1	  0.00	  2.72	 26.07	
2017	06	27	06	28	28 	  55.9	  56.0	  54.2	  91.1	 97.2	 90.8	  55.9	  56.0	  53.8	  87.1	  93.1	  86.5	  52.0	  52.1	  51.5	 1004.1	 1004.1	 1003.7	  56.2	  56.2	  53.8	65616	 65617	 51447	Clear	  69.7	  71.6	  69.1	  0.00	  2.72	 26.07	
2017	06	27	06	27	58 	  55.8	  56.0	  54.2	  91.2	 97.2	 90.8	  55.8	  56.0	  53.8	  87.2	  93.1	  86.5	  52.0	  52.1	  51.5	 1004.1	 1004.1	 1003.7	  56.2	  56.2	  53.8	65616	 65617	 51447	Clear	  69.7	  71.6	  69.1	  0.00	  2.72	 26.07	
2017	06	27	06	27	28 	  55.8	  56.0	  54.2	  91.3	 97.2	 90.8	  55.8	  56.0	  53.8	  87.2	  93.1	  86.5	  51.9	  52.1	  51.5	 1004.1	 1004.1	 1003.7	  56.0	  56.0	  53.8	65616	 65617	 51447	Clear	  69.7	  71.6	  69.1	  0.00	  2.72	 26.07	
2017	06	27	06	26	58 	  55.8	  56.0	  54.2	  91.4	 97.2	 90.8	  55.7	  56.0	  53.8	  87.3	  93.1	  86.5	  51.9	  52.1	  51.5	 1004.1	 1004.1	 1003.7	  56.0	  56.0	  53.8	65616	 65617	 51447	Clear	  69.7	  71.6	  69.1	  0.00	  2.72	 26.07	
2017	06	27	06	26	28 	  55.7	  56.0	  54.2	  91.4	 97.2	 90.8	  55.7	  56.0	  53.8	  87.3	  93.1	  86.5	  51.9	  52.1	  51.5	 1004.1	 1004.1	 1003.6	  55.8	  56.0	  53.8	65616	 65617	 51447	Clear	  69.7	  71.6	  69.1	  0.00	  2.72	 26.07	
2017	06	27	06	25	58 	  55.7	  56.0	  54.2	  91.4	 97.2	 90.8	  55.7	  56.0	  53.8	  87.3	  93.1	  86.5	  51.9	  52.1	  51.5	 1004.1	 1004.1	 1003.6	  55.8	  56.0	  53.8	65616	 65617	 51447	Clear	  69.7	  71.6	  69.1	  0.00	  2.72	 26.07	
2017	06	27	06	25	28 	  55.7	  56.0	  54.2	  91.4	 97.2	 90.8	  55.7	  56.0	  53.8	  87.3	  93.1	  86.5	  51.9	  52.1	  51.5	 1004.1	 1004.1	 1003.6	  55.7	  56.0	  53.8	65616	 65617	 51447	Clear	  69.7	  71.6	  69.1	  0.00	  2.72	 26.07	
2017	06	27	06	24	58 	  55.7	  56.0	  54.2	  91.4	 97.2	 90.8	  55.7	  56.0	  53.8	  87.3	  93.1	  86.5	  51.9	  52.1	  51.5	 1004.1	 1004.1	 1003.6	  55.7	  56.0	  53.8	65616	 65617	 51447	Clear	  69.7	  71.6	  69.1	  0.00	  2.72	 26.07	
2017	06	27	06	24	28 	  55.7	  56.0	  54.2	  91.3	 97.2	 90.8	  55.7	  56.0	  53.8	  87.2	  93.1	  86.5	  51.9	  52.1	  51.5	 1004.1	 1004.1	 1003.6	  55.6	  56.0	  53.8	65616	 65617	 51447	Clear	  69.7	  71.6	  69.1	  0.00	  2.72	 26.07	
2017	06	27	06	23	58 	  55.8	  56.0	  54.2	  91.2	 97.2	 90.8	  55.7	  56.0	  53.8	  87.1	  93.1	  86.5	  51.9	  52.1	  51.5	 1004.1	 1004.1	 1003.6	  55.6	  56.0	  53.8	65616	 65617	 51447	Clear	  69.7	  71.6	  69.1	  0.00	  2.72	 26.07	
2017	06	27	06	23	28 	  55.8	  56.0	  54.2	  91.1	 97.2	 90.8	  55.7	  56.0	  53.8	  87.0	  93.1	  86.5	  52.0	  52.1	  51.5	 1004.1	 1004.1	 1003.6	  55.6	  56.0	  53.8	65616	 65617	 51447	Clear	  69.7	  71.6	  69.1	  0.00	  2.72	 26.07	
2017	06	27	06	22	58 	  55.8	  56.0	  54.2	  91.0	 97.2	 90.8	  55.7	  56.0	  53.8	  86.9	  93.1	  86.5	  52.0	  52.1	  51.5	 1004.1	 1004.1	 1003.6	  55.6	  56.0	  53.8	65616	 65617	 51447	Clear	  69.7	  71.6	  69.1	  0.00	  2.72	 26.07	
2017	06	27	06	22	28 	  55.8	  56.0	  54.2	  91.0	 97.2	 90.8	  55.8	  56.0	  53.8	  86.8	  93.1	  86.5	  52.0	  52.1	  51.5	 1004.1	 1004.1	 1003.6	  55.6	  56.0	  53.8	65616	 65617	 51447	Clear	  69.7	  71.6	  69.1	  0.00	  2.72	 26.07	
2017	06	27	06	21	58 	  55.9	  56.0	  54.2	  90.9	 97.2	 90.8	  55.8	  56.0	  53.8	  86.7	  93.1	  86.5	  52.0	  52.1	  51.5	 1004.1	 1004.1	 1003.6	  55.6	  56.0	  53.8	65616	 65617	 51447	Clear	  69.7	  71.6	  69.1	  0.00	  2.72	 26.07	
2017	06	27	06	21	28 	  55.9	  56.0	  54.2	  90.8	 97.2	 90.8	  55.8	  56.0	  53.8	  86.6	  93.1	  86.5	  52.0	  52.2	  51.5	 1004.1	 1004.1	 1003.6	  55.7	  56.0	  53.8	65616	 65617	 51447	Clear	  69.7	  71.6	  69.1	  0.00	  2.72	 26.07	
2017	06	27	06	20	58 	  55.9	  56.0	  54.2	  90.8	 97.2	 90.8	  55.9	  56.0	  53.8	  86.6	  93.1	  86.5	  52.1	  52.2	  51.5	 1004.1	 1004.1	 1003.6	  55.7	  56.0	  53.8	65616	 65617	 51447	Clear	  69.7	  71.6	  69.1	  0.00	  2.72	 26.07	
2017	06	27	06	20	28 	  55.9	  56.0	  54.2	  90.8	 97.2	 90.8	  55.9	  56.0	  53.8	  86.6	  93.1	  86.5	  52.1	  52.2	  51.5	 1004.1	 1004.1	 1003.6	  55.8	  56.0	  53.8	65616	 65617	 51447	Clear	  69.7	  71.6	  69.1	  0.00	  2.72	 26.07	
2017	06	27	06	19	58 	  56.0	  56.0	  54.2	  90.8	 97.2	 90.8	  55.9	  56.0	  53.8	  86.5	  93.1	  86.5	  52.1	  52.2	  51.5	 1004.1	 1004.1	 1003.6	  55.8	  56.0	  53.8	65616	 65617	 51447	Clear	  69.8	  71.6	  69.1	  0.00	  2.72	 26.07	
2017	06	27	06	19	28 	  56.0	  56.0	  54.2	  90.9	 97.2	 90.9	  56.0	  56.0	  53.8	  86.6	  93.1	  86.5	  52.1	  52.2	  51.5	 1004.1	 1004.1	 1003.6	  55.8	  56.0	  53.8	65616	 65617	 51447	Clear	  69.7	  71.6	  69.1	  0.00	  2.72	 26.07	
2017	06	27	06	18	58 	  56.0	  56.0	  54.2	  90.9	 97.2	 90.9	  56.0	  56.0	  53.8	  86.7	  93.1	  86.5	  52.1	  52.2	  51.5	 1004.0	 1004.1	 1003.6	  55.8	  56.0	  53.8	65616	 65617	 51447	Clear	  69.8	  71.6	  69.1	  0.00	  2.72	 26.07	
2017	06	27	06	18	28 	  56.0	  56.0	  54.2	  91.0	 97.2	 90.9	  56.0	  56.0	  53.8	  86.7	  93.1	  86.5	  52.0	  52.2	  51.5	 1004.0	 1004.1	 1003.6	  55.9	  56.0	  53.8	65616	 65617	 51447	Clear	  69.7	  71.6	  69.1	  0.00	  2.72	 26.07	
2017	06	27	06	17	58 	  56.0	  56.0	  54.2	  91.0	 97.2	 90.9	  56.0	  56.0	  53.8	  86.7	  93.1	  86.5	  52.0	  52.2	  51.5	 1004.0	 1004.1	 1003.6	  55.9	  56.0	  53.8	65616	 65617	 51447	Clear	  69.7	  71.6	  69.1	  0.00	  2.72	 26.07	
2017	06	27	06	17	28 	  56.0	  56.0	  54.2	  91.0	 97.2	 90.9	  56.0	  56.0	  53.8	  86.7	  93.1	  86.5	  52.0	  52.2	  51.5	 1004.0	 1004.0	 1003.6	  56.0	  56.0	  53.8	65616	 65617	 51447	Clear	  69.8	  71.6	  69.1	  0.00	  2.72	 26.07	
2017	06	27	06	16	58 	  56.0	  56.0	  54.2	  91.1	 97.2	 90.9	  56.0	  56.0	  53.8	  86.7	  93.1	  86.5	  52.0	  52.2	  51.5	 1004.0	 1004.0	 1003.6	  56.0	  56.0	  53.8	65616	 65617	 51447	Clear	  69.8	  71.6	  69.1	  0.00	  2.72	 26.07	
2017	06	27	06	16	28 	  56.0	  55.9	  54.2	  91.0	 97.2	 90.9	  56.0	  56.0	  53.8	  86.7	  93.1	  86.5	  51.9	  52.2	  51.5	 1004.0	 1004.0	 1003.6	  56.0	  56.0	  53.8	65616	 65617	 51447	Clear	  69.8	  71.6	  69.1	  0.00	  2.72	 26.07	
2017	06	27	06	15	58 	  55.9	  55.9	  54.2	  91.0	 97.2	 90.9	  56.0	  56.0	  53.8	  86.6	  93.1	  86.5	  51.9	  52.2	  51.5	 1004.0	 1004.0	 1003.6	  56.0	  56.0	  53.8	65616	 65617	 51447	Clear	  69.8	  71.6	  69.1	  0.00	  2.72	 26.07	
2017	06	27	06	15	28 	  55.9	  55.9	  54.2	  91.0	 97.2	 90.9	  56.0	  56.0	  53.8	  86.5	  93.1	  86.5	  51.9	  52.2	  51.5	 1004.0	 1004.0	 1003.6	  56.0	  56.0	  53.8	65616	 65617	 51447	Clear	  69.8	  71.6	  69.1	  0.00	  2.72	 26.07	
2017	06	27	06	14	58 	  55.9	  55.9	  54.2	  91.0	 97.2	 90.9	  56.0	  56.0	  53.8	  86.5	  93.1	  86.5	  51.9	  52.2	  51.5	 1004.0	 1004.0	 1003.6	  56.0	  56.0	  53.8	65616	 65617	 51447	Clear	  69.8	  71.6	  69.1	  0.00	  2.72	 26.07	
2017	06	27	06	14	28 	  55.9	  55.9	  54.2	  90.9	 97.2	 90.9	  55.9	  55.9	  53.8	  86.5	  93.1	  86.5	  51.9	  52.2	  51.5	 1004.0	 1004.0	 1003.6	  56.0	  56.0	  53.8	65616	 65617	 51447	Clear	  69.8	  71.6	  69.1	  0.00	  2.72	 26.07	
2017	06	27	06	13	58 	  55.9	  55.9	  54.2	  90.9	 97.2	 90.9	  55.9	  55.9	  53.8	  86.5	  93.1	  86.5	  51.9	  52.2	  51.5	 1004.0	 1004.0	 1003.6	  56.0	  56.0	  53.8	65616	 65617	 51447	Clear	  69.8	  71.6	  69.1	  0.00	  2.72	 26.07	
2017	06	27	06	13	28 	  55.8	  55.8	  54.2	  90.9	 97.2	 91.0	  55.9	  55.8	  53.8	  86.5	  93.1	  86.6	  51.9	  52.2	  51.5	 1004.0	 1004.0	 1003.5	  55.9	  56.0	  53.8	65616	 65617	 51447	Clear	  69.8	  71.6	  69.1	  0.00	  2.72	 26.07	
2017	06	27	06	12	58 	  55.8	  55.8	  54.2	  91.0	 97.2	 91.0	  55.8	  55.8	  53.8	  86.6	  93.1	  86.6	  51.9	  52.2	  51.5	 1004.0	 1004.0	 1003.5	  55.9	  56.0	  53.8	65616	 65617	 51447	Clear	  69.8	  71.6	  69.1	  0.00	  2.72	 26.07	
2017	06	27	06	12	28 	  55.8	  55.8	  54.2	  91.0	 97.2	 91.0	  55.8	  55.8	  53.8	  86.7	  93.1	  86.7	  51.9	  52.2	  51.5	 1003.9	 1004.0	 1003.5	  56.0	  56.0	  53.8	65616	 65617	 51447	Clear	  69.8	  71.6	  69.1	  0.00	  2.72	 26.07	
2017	06	27	06	11	58 	  55.8	  55.8	  54.2	  91.0	 97.2	 91.0	  55.8	  55.8	  53.8	  86.7	  93.1	  86.7	  51.9	  52.2	  51.5	 1003.9	 1004.0	 1003.5	  56.0	  56.0	  53.8	65616	 65617	 51447	Clear	  69.8	  71.6	  69.1	  0.00	  2.72	 26.07	
2017	06	27	06	11	28 	  55.8	  55.8	  54.2	  91.1	 97.2	 91.1	  55.8	  55.7	  53.8	  86.7	  93.1	  86.8	  51.9	  52.2	  51.5	 1003.9	 1004.0	 1003.5	  55.9	  55.9	  53.8	65616	 65617	 51447	Clear	  69.8	  71.6	  69.1	  0.00	  2.72	 26.07	
2017	06	27	06	10	58 	  55.8	  55.8	  54.2	  91.1	 97.2	 91.1	  55.7	  55.7	  53.8	  86.8	  93.1	  86.8	  51.9	  52.2	  51.5	 1003.9	 1004.0	 1003.5	  55.9	  55.9	  53.8	65616	 65617	 51447	Clear	  69.8	  71.6	  69.1	  0.00	  2.72	 26.07	
2017	06	27	06	10	28 	  55.8	  55.8	  54.2	  91.2	 97.2	 91.2	  55.7	  55.7	  53.8	  86.9	  93.1	  87.0	  51.9	  52.2	  51.5	 1003.9	 1004.0	 1003.5	  55.8	  55.8	  53.8	65616	 65617	 51447	Clear	  69.8	  71.6	  69.1	  0.00	  2.72	 26.07	
2017	06	27	06	09	58 	  55.8	  55.8	  54.2	  91.2	 97.2	 91.2	  55.7	  55.7	  53.8	  87.0	  93.1	  87.0	  51.9	  52.2	  51.5	 1003.9	 1004.0	 1003.5	  55.8	  55.8	  53.8	65616	 65617	 51447	Clear	  69.8	  71.6	  69.1	  0.00	  2.72	 26.07	
2017	06	27	06	09	28 	  55.8	  55.8	  54.2	  91.3	 97.2	 91.2	  55.7	  55.7	  53.8	  87.0	  93.1	  87.2	  51.9	  52.2	  51.5	 1003.9	 1004.0	 1003.5	  55.7	  55.7	  53.8	65616	 65617	 51447	Clear	  69.8	  71.6	  69.1	  0.00	  2.72	 26.07	
2017	06	27	06	08	58 	  55.8	  55.8	  54.2	  91.3	 97.2	 91.2	  55.7	  55.7	  53.8	  87.2	  93.1	  87.2	  51.9	  52.2	  51.5	 1003.9	 1004.0	 1003.5	  55.7	  55.7	  53.8	65616	 65617	 51447	Clear	  69.8	  71.6	  69.1	  0.00	  2.72	 26.07	
2017	06	27	06	08	28 	  55.8	  55.7	  54.2	  91.4	 97.2	 91.2	  55.7	  55.7	  53.8	  87.2	  93.1	  87.3	  51.9	  52.2	  51.5	 1003.9	 1004.0	 1003.5	  55.7	  55.7	  53.8	65616	 65617	 51447	Clear	  69.8	  71.6	  69.1	  0.00	  2.72	 26.07	
2017	06	27	06	07	58 	  55.7	  55.7	  54.2	  91.5	 97.2	 91.2	  55.7	  55.7	  53.8	  87.3	  93.1	  87.3	  51.9	  52.2	  51.5	 1003.9	 1004.0	 1003.5	  55.7	  55.7	  53.8	65616	 65617	 51447	Clear	  69.8	  71.6	  69.1	  0.00	  2.72	 26.07	
2017	06	27	06	07	28 	  55.7	  55.7	  54.2	  91.5	 97.2	 91.2	  55.6	  55.6	  53.8	  87.3	  93.1	  87.4	  51.9	  52.2	  51.5	 1003.9	 1004.0	 1003.5	  55.7	  55.7	  53.8	65616	 65617	 51447	Clear	  69.8	  71.6	  69.1	  0.00	  2.72	 26.07	
2017	06	27	06	06	58 	  55.7	  55.7	  54.2	  91.6	 97.2	 91.2	  55.6	  55.6	  53.8	  87.4	  93.1	  87.4	  51.9	  52.2	  51.5	 1003.9	 1004.0	 1003.5	  55.7	  55.7	  53.8	65616	 65617	 51447	Clear	  69.8	  71.6	  69.1	  0.00	  2.72	 26.07	
2017	06	27	06	06	28 	  55.7	  55.6	  54.2	  91.7	 97.2	 91.2	  55.6	  55.5	  53.8	  87.5	  93.1	  87.4	  51.9	  52.3	  51.5	 1003.9	 1004.0	 1003.5	  55.7	  55.7	  53.8	65616	 65617	 51447	Clear	  69.8	  71.6	  69.1	  0.00	  2.72	 26.07	
2017	06	27	06	05	58 	  55.6	  55.6	  54.2	  91.7	 97.2	 91.2	  55.5	  55.5	  53.8	  87.6	  93.1	  87.4	  51.9	  52.3	  51.5	 1003.9	 1004.0	 1003.5	  55.7	  55.7	  53.8	65616	 65617	 51447	Clear	  69.8	  71.6	  69.1	  0.00	  2.72	 26.07	
2017	06	27	06	05	28 	  55.6	  55.6	  54.2	  91.8	 97.2	 91.2	  55.5	  55.5	  53.8	  87.7	  93.1	  87.4	  51.9	  52.3	  51.5	 1003.9	 1004.0	 1003.5	  55.6	  55.6	  53.8	65616	 65617	 51447	Clear	  69.8	  71.6	  69.1	  0.00	  2.72	 26.07	
2017	06	27	06	04	58 	  55.6	  55.6	  54.2	  91.9	 97.2	 91.2	  55.5	  55.5	  53.8	  87.8	  93.1	  87.4	  51.9	  52.3	  51.5	 1003.9	 1004.0	 1003.5	  55.6	  55.6	  53.8	65616	 65617	 51447	Clear	  69.8	  71.6	  69.1	  0.00	  2.72	 26.07	
2017	06	27	06	04	28 	  55.6	  55.5	  54.2	  91.9	 97.2	 91.2	  55.5	  55.4	  53.8	  87.8	  93.1	  87.4	  51.9	  52.3	  51.5	 1003.9	 1004.0	 1003.5	  55.6	  55.6	  53.8	65616	 65617	 51447	Clear	  69.8	  71.6	  69.1	  0.00	  2.72	 26.07	
2017	06	27	06	03	58 	  55.5	  55.5	  54.2	  91.9	 97.2	 91.2	  55.4	  55.4	  53.8	  87.8	  93.1	  87.4	  51.9	  52.3	  51.5	 1003.9	 1004.0	 1003.5	  55.6	  55.6	  53.8	65616	 65617	 51447	Clear	  69.8	  71.6	  69.1	  0.00	  2.72	 26.07	
2017	06	27	06	03	28 	  55.5	  55.5	  54.2	  91.9	 97.2	 91.2	  55.4	  55.4	  53.8	  87.9	  93.1	  87.4	  51.8	  52.3	  51.5	 1003.9	 1004.0	 1003.5	  55.5	  55.5	  53.8	65616	 65617	 51447	Clear	  69.8	  71.6	  69.1	  0.00	  2.72	 26.07	
2017	06	27	06	02	58 	  55.5	  55.5	  54.2	  91.9	 97.2	 91.2	  55.4	  55.4	  53.8	  88.0	  93.1	  87.4	  51.8	  52.3	  51.5	 1003.9	 1004.0	 1003.5	  55.5	  55.5	  53.8	65616	 65617	 51447	Clear	  69.8	  71.6	  69.1	  0.00	  2.72	 26.07	
2017	06	27	06	02	28 	  55.5	  55.5	  54.2	  91.9	 97.2	 91.2	  55.3	  55.3	  53.8	  88.1	  93.1	  87.4	  51.8	  52.4	  51.5	 1003.9	 1004.0	 1003.5	  55.4	  55.4	  53.8	65616	 65617	 51447	Clear	  69.8	  71.6	  69.1	  0.00	  2.72	 26.07	
2017	06	27	06	01	58 	  55.5	  55.5	  54.2	  91.9	 97.2	 91.2	  55.3	  55.3	  53.8	  88.1	  93.1	  87.4	  51.8	  52.4	  51.5	 1003.9	 1004.0	 1003.5	  55.4	  55.4	  53.8	65616	 65617	 51447	Clear	  69.8	  71.6	  69.1	  0.00	  2.72	 26.07	
2017	06	27	06	01	28 	  55.5	  55.5	  54.2	  91.9	 97.2	 91.2	  55.3	  55.3	  53.8	  88.2	  93.2	  87.4	  51.8	  52.4	  51.5	 1003.9	 1004.0	 1003.5	  55.4	  55.4	  53.8	65616	 65617	 51447	Clear	  69.8	  71.6	  69.1	  0.00	  2.72	 26.07	
2017	06	27	06	00	58 	  55.5	  55.5	  54.2	  91.9	 97.2	 91.2	  55.3	  55.3	  53.8	  88.3	  93.2	  87.4	  51.8	  52.4	  51.5	 1003.9	 1004.0	 1003.5	  55.4	  55.4	  53.8	65616	 65617	 51447	Clear	  69.8	  71.6	  69.1	  0.00	  2.72	 26.07	
2017	06	27	06	00	28 	  55.5	  55.4	  54.2	  92.0	 97.2	 91.2	  55.2	  55.2	  53.8	  88.3	  93.3	  87.4	  51.7	  52.4	  51.5	 1003.9	 1004.0	 1003.5	  55.4	  55.4	  53.8	65616	 65617	 51447	Clear	  69.8	  71.6	  69.1	  0.00	  2.72	 26.07	
2017	06	27	05	59	58 	  55.4	  55.4	  54.2	  92.0	 97.2	 91.2	  55.2	  55.2	  53.8	  88.3	  93.3	  87.4	  51.7	  52.4	  51.5	 1003.9	 1004.0	 1003.5	  55.4	  55.4	  53.8	65616	 65617	 51447	Clear	  69.8	  71.6	  69.1	  0.00	  2.72	 26.07	
2017	06	27	05	59	28 	  55.4	  55.4	  54.2	  92.0	 97.2	 91.2	  55.2	  55.1	  53.8	  88.4	  93.4	  87.4	  51.7	  52.4	  51.5	 1003.9	 1003.9	 1003.5	  55.3	  55.3	  53.8	65616	 65617	 51447	Clear	  69.8	  71.6	  69.1	  0.00	  2.72	 26.07	
2017	06	27	05	58	58 	  55.4	  55.4	  54.2	  92.0	 97.2	 91.2	  55.1	  55.1	  53.8	  88.5	  93.4	  87.4	  51.7	  52.4	  51.5	 1003.9	 1003.9	 1003.5	  55.3	  55.3	  53.8	65616	 65617	 51447	Clear	  69.8	  71.6	  69.1	  0.00	  2.72	 26.07	
2017	06	27	05	58	28 	  55.4	  55.4	  54.2	  92.1	 97.2	 91.2	  55.1	  55.1	  53.8	  88.5	  93.4	  87.4	  51.7	  52.4	  51.5	 1003.9	 1003.9	 1003.5	  55.2	  55.2	  53.8	65616	 65617	 51447	Clear	  69.9	  71.6	  69.1	  0.00	  2.72	 26.07	
2017	06	27	05	57	58 	  55.4	  55.4	  54.2	  92.1	 97.2	 91.2	  55.1	  55.1	  53.8	  88.5	  93.4	  87.4	  51.6	  52.4	  51.5	 1003.9	 1003.9	 1003.5	  55.2	  55.2	  53.8	65616	 65617	 51447	Clear	  69.9	  71.6	  69.1	  0.00	  2.72	 26.07	
2017	06	27	05	57	28 	  55.4	  55.4	  54.2	  92.1	 97.2	 91.2	  55.1	  55.1	  53.8	  88.4	  93.4	  87.4	  51.6	  52.4	  51.5	 1003.9	 1003.9	 1003.5	  55.1	  55.2	  53.8	65616	 65617	 51447	Clear	  69.8	  71.6	  69.1	  0.00	  2.72	 26.07	
2017	06	27	05	56	58 	  55.3	  55.4	  54.2	  92.0	 97.2	 91.2	  55.1	  55.1	  53.8	  88.3	  93.4	  87.4	  51.6	  52.4	  51.5	 1003.9	 1003.9	 1003.5	  55.1	  55.2	  53.8	65616	 65617	 51447	Clear	  69.9	  71.6	  69.1	  0.00	  2.72	 26.07	
2017	06	27	05	56	28 	  55.3	  55.4	  54.2	  92.0	 97.2	 91.2	  55.1	  55.1	  53.8	  88.3	  93.4	  87.4	  51.6	  52.4	  51.5	 1003.9	 1003.9	 1003.5	  55.1	  55.2	  53.8	65616	 65617	 51447	Clear	  69.9	  71.6	  69.1	  0.00	  2.72	 26.07	
2017	06	27	05	55	58 	  55.3	  55.4	  54.2	  92.0	 97.2	 91.2	  55.1	  55.1	  53.8	  88.2	  93.4	  87.4	  51.5	  52.4	  51.5	 1003.9	 1003.9	 1003.5	  55.1	  55.2	  53.8	65616	 65617	 51447	Clear	  69.9	  71.6	  69.1	  0.00	  2.72	 26.07	
2017	06	27	05	55	28 	  55.3	  55.4	  54.2	  91.9	 97.2	 91.2	  55.1	  55.1	  53.8	  88.1	  93.4	  87.4	  51.5	  52.4	  51.5	 1003.9	 1003.9	 1003.5	  55.1	  55.2	  53.8	65616	 65617	 51447	Clear	  69.8	  71.6	  69.1	  0.00	  2.72	 26.07	
2017	06	27	05	54	58 	  55.3	  55.4	  54.2	  91.8	 97.2	 91.2	  55.1	  55.1	  53.8	  88.0	  93.4	  87.4	  51.5	  52.4	  51.5	 1003.9	 1003.9	 1003.5	  55.1	  55.2	  53.8	65616	 65617	 51447	Clear	  69.9	  71.6	  69.1	  0.00	  2.72	 26.07	
2017	06	27	05	54	28 	  55.3	  55.4	  54.2	  91.7	 97.2	 91.2	  55.1	  55.1	  53.8	  87.9	  93.4	  87.4	  51.5	  52.4	  51.5	 1003.9	 1003.9	 1003.5	  55.1	  55.2	  53.8	65616	 65617	 51447	Clear	  69.9	  71.6	  69.1	  0.00	  2.72	 26.07	
2017	06	27	05	53	58 	  55.3	  55.4	  54.2	  91.6	 97.2	 91.2	  55.1	  55.1	  53.8	  87.7	  93.4	  87.4	  51.5	  52.4	  51.5	 1003.9	 1003.9	 1003.5	  55.1	  55.2	  53.8	65616	 65617	 51447	Clear	  69.9	  71.6	  69.1	  0.00	  2.72	 26.07	
2017	06	27	05	53	28 	  55.3	  55.4	  54.2	  91.5	 97.2	 91.2	  55.1	  55.1	  53.8	  87.6	  93.4	  87.4	  51.5	  52.4	  51.5	 1003.9	 1003.9	 1003.5	  55.1	  55.2	  53.8	65616	 65617	 51447	Clear	  69.9	  71.6	  69.1	  0.00	  2.72	 26.07	
2017	06	27	05	52	58 	  55.3	  55.4	  54.2	  91.4	 97.2	 91.2	  55.1	  55.1	  53.8	  87.5	  93.4	  87.4	  51.5	  52.4	  51.5	 1003.9	 1003.9	 1003.5	  55.1	  55.2	  53.8	65616	 65617	 51447	Clear	  69.8	  71.6	  69.1	  0.00	  2.72	 26.07	
2017	06	27	05	52	28 	  55.4	  55.4	  54.2	  91.3	 97.2	 91.2	  55.1	  55.1	  53.8	  87.4	  93.4	  87.4	  51.5	  52.4	  51.5	 1003.9	 1003.9	 1003.5	  55.1	  55.2	  53.8	65616	 65617	 51447	Clear	  69.9	  71.6	  69.1	  0.00	  2.72	 26.07	
2017	06	27	05	51	58 	  55.4	  55.4	  54.2	  91.3	 97.2	 91.2	  55.1	  55.1	  53.8	  87.4	  93.4	  87.4	  51.5	  52.4	  51.5	 1003.9	 1003.9	 1003.5	  55.1	  55.2	  53.8	65616	 65617	 51447	Clear	  69.9	  71.6	  69.1	  0.00	  2.72	 26.07	
2017	06	27	05	51	28 	  55.4	  55.4	  54.2	  91.2	 97.2	 91.2	  55.1	  55.1	  53.8	  87.4	  93.4	  87.4	  51.5	  52.4	  51.5	 1003.9	 1003.9	 1003.5	  54.9	  55.2	  53.8	65616	 65617	 51447	Clear	  69.9	  71.6	  69.1	  0.00	  2.72	 26.07	
2017	06	27	05	50	58 	  55.4	  55.4	  54.2	  91.2	 97.2	 91.2	  55.1	  55.1	  53.8	  87.4	  93.4	  87.4	  51.5	  52.4	  51.5	 1003.9	 1003.9	 1003.5	  54.9	  55.2	  53.8	65616	 65617	 51447	Clear	  69.9	  71.6	  69.1	  0.00	  2.72	 26.07	
2017	06	27	05	50	28 	  55.4	  55.3	  54.2	  91.2	 97.2	 91.2	  55.1	  55.1	  53.8	  87.4	  93.4	  87.5	  51.5	  52.4	  51.5	 1003.9	 1003.9	 1003.5	  54.9	  55.2	  53.8	65616	 65617	 51447	Clear	  69.9	  71.6	  69.1	  0.00	  2.72	 26.07	
2017	06	27	05	49	58 	  55.3	  55.3	  54.2	  91.2	 97.2	 91.2	  55.1	  55.1	  53.8	  87.5	  93.4	  87.5	  51.6	  52.4	  51.5	 1003.9	 1003.9	 1003.5	  54.9	  55.2	  53.8	65616	 65617	 51447	Clear	  69.9	  71.6	  69.1	  0.00	  2.72	 26.07	
2017	06	27	05	49	28 	  55.3	  55.3	  54.2	  91.3	 97.2	 91.3	  55.1	  55.0	  53.8	  87.6	  93.4	  87.8	  51.6	  52.4	  51.5	 1003.9	 1003.9	 1003.5	  55.2	  55.2	  53.8	65616	 65617	 51447	Clear	  69.8	  71.6	  69.1	  0.00	  2.72	 26.07	
2017	06	27	05	48	58 	  55.3	  55.3	  54.2	  91.3	 97.2	 91.3	  55.0	  55.0	  53.8	  87.8	  93.4	  87.8	  51.6	  52.4	  51.5	 1003.9	 1003.9	 1003.5	  55.2	  55.2	  53.8	65616	 65617	 51447	Clear	  69.9	  71.6	  69.1	  0.00	  2.72	 26.07	
2017	06	27	05	48	28 	  55.3	  55.2	  54.2	  91.5	 97.2	 91.6	  55.0	  54.9	  53.8	  88.0	  93.4	  88.3	  51.6	  52.4	  51.5	 1003.8	 1003.9	 1003.5	  55.2	  55.2	  53.8	65616	 65617	 51447	Clear	  69.9	  71.6	  69.1	  0.00	  2.72	 26.07	
2017	06	27	05	47	58 	  55.2	  55.2	  54.2	  91.6	 97.2	 91.6	  54.9	  54.9	  53.8	  88.3	  93.4	  88.3	  51.6	  52.4	  51.5	 1003.8	 1003.9	 1003.5	  55.2	  55.2	  53.8	65616	 65617	 51447	Clear	  69.9	  71.6	  69.1	  0.00	  2.72	 26.07	
2017	06	27	05	47	28 	  55.2	  55.2	  54.2	  91.7	 97.2	 91.9	  54.9	  54.9	  53.8	  88.5	  93.4	  88.7	  51.6	  52.4	  51.6	 1003.8	 1003.9	 1003.5	  55.1	  55.1	  53.8	65616	 65617	 51447	Clear	  69.9	  71.6	  69.1	  0.00	  2.72	 26.07	
2017	06	27	05	46	58 	  55.2	  55.2	  54.2	  91.9	 97.2	 91.9	  54.9	  54.9	  53.8	  88.7	  93.4	  88.7	  51.6	  52.4	  51.6	 1003.8	 1003.9	 1003.5	  55.1	  55.1	  53.8	65616	 65617	 51447	Clear	  69.9	  71.6	  69.1	  0.00	  2.72	 26.07	
2017	06	27	05	46	28 	  55.2	  55.2	  54.2	  92.0	 97.2	 92.2	  54.8	  54.9	  53.8	  89.0	  93.4	  89.1	  51.6	  52.4	  51.6	 1003.8	 1003.9	 1003.5	  55.0	  55.0	  53.8	65616	 65617	 51447	Clear	  69.9	  71.6	  69.1	  0.00	  2.72	 26.07	
2017	06	27	05	45	58 	  55.1	  55.2	  54.2	  92.2	 97.2	 92.2	  54.8	  54.9	  53.8	  89.1	  93.4	  89.1	  51.7	  52.4	  51.6	 1003.8	 1003.9	 1003.5	  55.0	  55.0	  53.8	65616	 65617	 51447	Clear	  69.9	  71.6	  69.1	  0.00	  2.72	 26.07	
2017	06	27	05	45	28 	  55.1	  55.2	  54.2	  92.3	 97.2	 92.5	  54.7	  54.9	  53.8	  89.3	  93.4	  89.4	  51.7	  52.4	  51.6	 1003.8	 1003.9	 1003.5	  54.9	  54.9	  53.8	65616	 65617	 51447	Clear	  69.9	  71.6	  69.1	  0.00	  2.72	 26.07	
2017	06	27	05	44	58 	  55.1	  55.2	  54.2	  92.5	 97.2	 92.5	  54.7	  54.9	  53.8	  89.4	  93.4	  89.4	  51.7	  52.4	  51.6	 1003.8	 1003.9	 1003.5	  54.9	  54.9	  53.8	65616	 65617	 51447	Clear	  69.9	  71.6	  69.1	  0.00	  2.72	 26.07	
2017	06	27	05	44	28 	  55.1	  55.2	  54.2	  92.6	 97.2	 92.7	  54.7	  54.9	  53.8	  89.5	  93.4	  89.6	  51.7	  52.4	  51.7	 1003.8	 1003.9	 1003.5	  54.7	  54.9	  53.8	65616	 65617	 51447	Clear	  69.9	  71.6	  69.1	  0.00	  2.72	 26.07	
2017	06	27	05	43	58 	  55.0	  55.2	  54.2	  92.7	 97.2	 92.7	  54.7	  54.9	  53.8	  89.6	  93.4	  89.6	  51.7	  52.4	  51.7	 1003.8	 1003.9	 1003.5	  54.7	  54.9	  53.8	65616	 65617	 51447	Clear	  69.9	  71.6	  69.1	  0.00	  2.72	 26.07	
2017	06	27	05	43	28 	  55.0	  55.2	  54.2	  92.7	 97.2	 92.8	  54.6	  54.9	  53.8	  89.7	  93.4	  89.7	  51.7	  52.4	  51.7	 1003.9	 1003.9	 1003.5	  54.7	  54.9	  53.8	65616	 65617	 51447	Clear	  69.9	  71.6	  69.1	  0.00	  2.72	 26.07	
2017	06	27	05	42	58 	  55.0	  55.2	  54.2	  92.8	 97.2	 92.8	  54.6	  54.9	  53.8	  89.7	  93.4	  89.7	  51.7	  52.4	  51.7	 1003.8	 1003.9	 1003.5	  54.7	  54.9	  53.8	65616	 65617	 51447	Clear	  69.9	  71.6	  69.1	  0.00	  2.72	 26.07	
2017	06	27	05	42	28 	  55.0	  55.2	  54.2	  92.9	 97.2	 92.9	  54.6	  54.9	  53.8	  89.8	  93.4	  89.9	  51.7	  52.4	  51.7	 1003.9	 1003.9	 1003.5	  54.6	  54.9	  53.8	65616	 65617	 51447	Clear	  69.9	  71.6	  69.1	  0.00	  2.72	 26.07	
2017	06	27	05	41	58 	  55.0	  55.2	  54.2	  92.9	 97.2	 92.9	  54.6	  54.9	  53.8	  89.9	  93.4	  89.9	  51.7	  52.4	  51.7	 1003.9	 1003.9	 1003.5	  54.6	  54.9	  53.8	65616	 65617	 51447	Clear	  69.9	  71.6	  69.1	  0.00	  2.72	 26.07	
2017	06	27	05	41	28 	  55.0	  55.2	  54.2	  93.0	 97.2	 93.0	  54.6	  54.9	  53.8	  89.9	  93.4	  90.1	  51.8	  52.4	  51.7	 1003.8	 1003.9	 1003.5	  54.6	  54.9	  53.8	65616	 65617	 51447	Clear	  69.9	  71.6	  69.1	  0.00	  2.72	 26.07	
2017	06	27	05	40	58 	  55.0	  55.2	  54.2	  93.0	 97.2	 93.0	  54.5	  54.9	  53.8	  90.1	  93.4	  90.1	  51.8	  52.4	  51.7	 1003.8	 1003.9	 1003.5	  54.6	  54.9	  53.8	65616	 65617	 51447	Clear	  69.9	  71.6	  69.1	  0.00	  2.72	 26.07	
2017	06	27	05	40	28 	  55.0	  55.2	  54.2	  93.1	 97.2	 93.1	  54.5	  54.9	  53.8	  90.2	  93.4	  90.2	  51.8	  52.4	  51.7	 1003.8	 1003.9	 1003.5	  54.6	  54.9	  53.8	65616	 65617	 51447	Clear	  69.9	  71.6	  69.1	  0.00	  2.72	 26.07	
2017	06	27	05	39	58 	  55.0	  55.2	  54.2	  93.1	 97.2	 93.1	  54.5	  54.9	  53.8	  90.4	  93.4	  90.2	  51.8	  52.4	  51.7	 1003.8	 1003.9	 1003.5	  54.6	  54.9	  53.8	51446	 65617	 51447	Clear	  69.9	  71.6	  69.1	  0.00	  2.72	 26.07	
2017	06	27	05	39	28 	  55.0	  55.3	  54.2	  93.2	 97.2	 93.3	  54.4	  54.9	  53.8	  90.6	  93.4	  90.2	  51.8	  52.4	  51.8	 1003.9	 1003.9	 1003.4	  54.6	  54.9	  53.8	58208	 65617	 65617	Clear	  69.9	  71.6	  69.1	  0.00	  2.72	 26.07	
2017	06	27	05	38	58 	  54.9	  55.3	  54.2	  93.3	 97.2	 93.3	  54.4	  54.9	  53.8	  90.8	  93.4	  90.2	  51.8	  52.4	  51.8	 1003.9	 1003.9	 1003.4	  54.6	  54.9	  53.8	65616	 65617	 65617	Clear	  69.9	  71.6	  69.1	  0.00	  2.72	 26.07	
2017	06	27	05	38	28 	  54.9	  55.3	  54.2	  93.5	 97.2	 93.3	  54.3	  54.9	  53.8	  91.1	  93.4	  90.2	  51.9	  52.4	  51.8	 1003.8	 1003.9	 1003.4	  54.5	  54.9	  53.8	65616	 65617	 65617	Clear	  69.9	  71.6	  69.1	  0.00	  2.72	 26.07	
2017	06	27	05	37	58 	  54.9	  55.3	  54.2	  93.6	 97.2	 93.3	  54.3	  54.9	  53.8	  91.4	  93.4	  90.2	  51.9	  52.4	  51.8	 1003.8	 1003.9	 1003.4	  54.5	  54.9	  53.8	65616	 65617	 65617	Clear	  69.9	  71.6	  69.1	  0.00	  2.72	 26.07	
2017	06	27	05	37	28 	  54.9	  55.3	  54.2	  93.8	 97.2	 93.3	  54.2	  54.9	  53.8	  91.6	  93.4	  90.2	  51.9	  52.4	  51.8	 1003.8	 1003.9	 1003.4	  54.5	  54.9	  53.8	65616	 65617	 65617	Clear	  69.9	  71.6	  69.1	  0.00	  2.72	 26.07	
2017	06	27	05	36	58 	  54.8	  55.3	  54.2	  94.0	 97.2	 93.3	  54.2	  54.9	  53.8	  91.8	  93.4	  90.2	  51.9	  52.4	  51.8	 1003.8	 1003.9	 1003.4	  54.5	  54.9	  53.8	65616	 65617	 65617	Clear	  69.9	  71.6	  69.1	  0.00	  2.72	 26.07	
2017	06	27	05	36	28 	  54.8	  55.4	  54.2	  94.3	 97.2	 93.3	  54.1	  54.9	  53.8	  92.1	  93.4	  90.2	  51.9	  52.4	  51.9	 1003.9	 1003.9	 1003.4	  54.4	  54.9	  53.8	65616	 65617	 65617	Clear	  69.9	  71.6	  69.1	  0.00	  2.72	 26.07	
2017	06	27	05	35	58 	  54.7	  55.4	  54.2	  94.6	 97.2	 93.3	  54.0	  54.9	  53.8	  92.3	  93.4	  90.2	  51.9	  52.4	  51.9	 1003.8	 1003.9	 1003.4	  54.4	  54.9	  53.8	65616	 65617	 65617	Clear	  69.9	  71.6	  69.1	  0.00	  2.72	 26.07	
2017	06	27	05	35	28 	  54.7	  55.4	  54.2	  94.9	 97.2	 93.3	  54.0	  54.9	  53.8	  92.6	  93.4	  90.2	  51.9	  52.4	  51.9	 1003.9	 1003.9	 1003.4	  54.2	  54.9	  53.8	65616	 65617	 65617	Clear	  70.0	  71.6	  69.1	  0.00	  2.72	 26.07	
2017	06	27	05	34	58 	  54.6	  55.4	  54.2	  95.2	 97.2	 93.3	  54.0	  54.9	  53.8	  92.7	  93.4	  90.2	  51.9	  52.4	  51.9	 1003.9	 1003.9	 1003.4	  54.2	  54.9	  53.8	65616	 65617	 65617	Clear	  69.9	  71.6	  69.1	  0.00	  2.72	 26.07	
2017	06	27	05	34	28 	  54.5	  55.4	  54.2	  95.6	 97.2	 93.3	  53.9	  54.9	  53.8	  92.9	  93.4	  90.2	  51.9	  52.4	  51.9	 1003.9	 1003.9	 1003.4	  54.0	  54.9	  53.8	65616	 65617	 65617	Clear	  70.0	  71.6	  69.1	  0.00	  2.72	 26.07	
2017	06	27	05	33	58 	  54.5	  55.4	  54.2	  95.9	 97.2	 93.3	  53.9	  54.9	  53.8	  93.0	  93.4	  90.2	  51.9	  52.4	  51.9	 1003.9	 1003.9	 1003.4	  54.0	  54.9	  53.8	65616	 65617	 65617	Clear	  69.9	  71.6	  69.1	  0.00	  2.72	 26.07	
2017	06	27	05	33	28 	  54.4	  55.5	  54.2	  96.2	 97.2	 93.3	  53.9	  54.9	  53.8	  93.0	  93.4	  90.2	  51.9	  52.4	  51.9	 1003.8	 1003.9	 1003.4	  54.0	  54.9	  53.8	65616	 65617	 65617	Clear	  69.9	  71.6	  69.1	  0.00	  2.72	 26.07	
2017	06	27	05	32	58 	  54.4	  55.5	  54.2	  96.4	 97.2	 93.3	  53.9	  54.9	  53.8	  93.1	  93.4	  90.2	  51.9	  52.4	  51.9	 1003.8	 1003.9	 1003.4	  54.0	  54.9	  53.8	65616	 65617	 65617	Clear	  70.0	  71.6	  69.1	  0.00	  2.72	 26.07	
2017	06	27	05	32	28 	  54.3	  55.5	  54.2	  96.7	 97.2	 93.3	  53.9	  55.0	  53.8	  93.1	  93.4	  90.2	  51.9	  52.4	  51.9	 1003.8	 1003.8	 1003.4	  53.9	  54.9	  53.8	65616	 65617	 65617	Clear	  69.9	  71.6	  69.1	  0.00	  2.72	 26.07	
2017	06	27	05	31	58 	  54.3	  55.5	  54.2	  96.9	 97.2	 93.3	  53.9	  55.0	  53.8	  93.1	  93.4	  90.2	  51.9	  52.4	  51.9	 1003.8	 1003.8	 1003.4	  53.9	  54.9	  53.8	65616	 65617	 65617	Clear	  69.9	  71.6	  69.1	  0.00	  2.72	 26.07	
2017	06	27	05	31	28 	  54.2	  55.5	  54.2	  97.0	 97.2	 93.3	  53.9	  55.0	  53.8	  93.1	  93.4	  90.2	  51.9	  52.4	  51.9	 1003.8	 1003.8	 1003.4	  53.9	  54.9	  53.8	65616	 65617	 65617	Clear	  70.0	  71.6	  69.1	  0.00	  2.72	 26.07	
2017	06	27	05	30	58 	  54.2	  55.5	  54.2	  97.2	 97.2	 93.3	  53.8	  55.0	  53.8	  93.1	  93.4	  90.2	  51.9	  52.4	  51.9	 1003.8	 1003.8	 1003.4	  53.9	  54.9	  53.8	65616	 65617	 65617	Clear	  70.0	  71.6	  69.1	  0.00	  2.72	 26.07	
2017	06	27	05	30	28 	  54.2	  55.6	  54.2	  97.2	 97.2	 93.3	  53.8	  55.1	  53.8	  93.1	  93.4	  90.2	  51.9	  52.4	  51.9	 1003.8	 1003.8	 1003.4	  53.8	  54.9	  53.8	65616	 65617	 65617	Clear	  70.0	  71.6	  69.1	  0.00	  2.72	 26.07	
2017	06	27	05	29	58 	  54.2	  55.6	  54.2	  97.2	 97.2	 93.3	  53.8	  55.1	  53.8	  93.1	  93.4	  90.2	  51.9	  52.4	  51.9	 1003.8	 1003.8	 1003.4	  53.8	  54.9	  53.8	65616	 65617	 65617	Clear	  69.9	  71.6	  69.1	  0.00	  2.72	 26.07	
2017	06	27	05	29	28 	  54.2	  55.6	  54.2	  97.1	 97.1	 93.3	  53.9	  55.1	  53.9	  93.0	  93.4	  90.2	  51.9	  52.4	  51.9	 1003.8	 1003.8	 1003.4	  53.8	  55.0	  53.8	65616	 65617	 65617	Clear	  69.9	  71.6	  69.1	  0.00	  2.72	 26.07	
2017	06	27	05	28	58 	  54.2	  55.6	  54.2	  97.1	 97.1	 93.3	  53.9	  55.1	  53.9	  93.0	  93.4	  90.2	  52.0	  52.4	  51.9	 1003.7	 1003.8	 1003.4	  53.8	  55.0	  53.8	65616	 65617	 65617	Clear	  69.9	  71.6	  69.1	  0.00	  2.72	 26.07	
2017	06	27	05	28	28 	  54.2	  55.6	  54.2	  97.0	 96.9	 93.3	  53.9	  55.2	  53.9	  93.0	  93.4	  90.2	  52.0	  52.4	  51.9	 1003.7	 1003.7	 1003.4	  53.9	  55.1	  53.9	65616	 65617	 65617	Clear	  69.9	  71.6	  69.1	  0.00	  2.72	 26.07	
2017	06	27	05	27	58 	  54.2	  55.6	  54.2	  96.9	 96.9	 93.3	  53.9	  55.2	  53.9	  93.0	  93.4	  90.2	  52.0	  52.4	  51.9	 1003.7	 1003.7	 1003.4	  53.9	  55.1	  53.9	65616	 65617	 65617	Clear	  70.0	  71.6	  69.1	  0.00	  2.72	 26.07	
2017	06	27	05	27	28 	  54.3	  55.6	  54.3	  96.8	 96.7	 93.3	  53.9	  55.2	  53.9	  93.0	  93.4	  90.1	  52.0	  52.4	  51.9	 1003.7	 1003.7	 1003.4	  53.9	  55.1	  53.9	65616	 65617	 65617	Clear	  70.0	  71.6	  69.1	  0.00	  2.72	 26.07	
2017	06	27	05	26	58 	  54.3	  55.6	  54.3	  96.7	 96.7	 93.3	  53.9	  55.2	  53.9	  93.0	  93.4	  90.1	  52.0	  52.4	  51.9	 1003.7	 1003.7	 1003.4	  53.9	  55.1	  53.9	65616	 65617	 65617	Clear	  70.0	  71.6	  69.1	  0.00	  2.72	 26.07	
2017	06	27	05	26	28 	  54.3	  55.7	  54.4	  96.6	 96.4	 93.3	  53.9	  55.3	  53.9	  93.0	  93.4	  89.9	  52.0	  52.4	  52.0	 1003.6	 1003.7	 1003.4	  53.9	  55.1	  53.9	65616	 65617	 65617	Clear	  70.0	  71.6	  69.1	  0.00	  2.72	 26.07	
2017	06	27	05	25	58 	  54.4	  55.7	  54.4	  96.4	 96.4	 93.3	  53.9	  55.3	  53.9	  93.0	  93.4	  89.9	  52.1	  52.4	  52.0	 1003.6	 1003.7	 1003.4	  53.9	  55.1	  53.9	65616	 65617	 65617	Clear	  70.0	  71.6	  69.1	  0.00	  2.72	 26.07	
2017	06	27	05	25	28 	  54.4	  55.7	  54.5	  96.3	 96.2	 93.3	  54.0	  55.4	  54.0	  93.0	  93.4	  89.7	  52.1	  52.4	  52.0	 1003.6	 1003.7	 1003.4	  53.9	  55.2	  53.9	65616	 65617	 65617	Clear	  69.9	  71.6	  69.1	  0.00	  2.72	 26.07	

Wind data

Year   mnth   day   hh    mm     ss       ff    dd

2017	06	27	07	29	42 	   7.6	  203	
2017	06	27	07	29	12 	   2.9	  148	
2017	06	27	07	28	42 	   1.1	  203	
2017	06	27	07	28	12 	   1.3	  161	
2017	06	27	07	27	42 	   1.1	  203	
2017	06	27	07	27	12 	   1.6	  145	
2017	06	27	07	26	42 	   2.0	  116	
2017	06	27	07	26	12 	   1.1	  169	
2017	06	27	07	25	42 	   0.0	  150	
2017	06	27	07	25	12 	   5.8	  146	
2017	06	27	07	24	42 	   2.9	  210	
2017	06	27	07	24	12 	   5.1	  136	
2017	06	27	07	23	42 	   3.6	  133	
2017	06	27	07	23	12 	   0.9	  166	
2017	06	27	07	22	42 	   2.7	  126	
2017	06	27	07	22	12 	   3.6	  169	
2017	06	27	07	21	42 	   2.2	  120	
2017	06	27	07	21	12 	   1.3	  139	
2017	06	27	07	20	42 	   0.4	  150	
2017	06	27	07	20	12 	   1.3	   99	
2017	06	27	07	19	42 	   0.9	  104	
2017	06	27	07	19	12 	   2.5	  180	
2017	06	27	07	18	42 	   2.5	  159	
2017	06	27	07	18	12 	   4.7	  142	
2017	06	27	07	17	42 	   4.9	  152	
2017	06	27	07	17	12 	   1.1	  169	
2017	06	27	07	16	42 	   1.8	  141	
2017	06	27	07	16	12 	   2.9	  148	
2017	06	27	07	15	42 	   1.8	  141	
2017	06	27	07	15	12 	   5.1	  118	
2017	06	27	07	14	42 	   1.6	  180	
2017	06	27	07	14	12 	   3.1	  125	
2017	06	27	07	13	42 	   7.2	  170	
2017	06	27	07	13	12 	   1.3	  132	
2017	06	27	07	12	42 	   2.5	  180	
2017	06	27	07	12	12 	   3.1	  140	
2017	06	27	07	11	42 	   2.0	  139	
2017	06	27	07	11	12 	   3.1	  155	
2017	06	27	07	10	42 	   3.6	  101	
2017	06	27	07	10	12 	   3.8	  201	
2017	06	27	07	09	42 	   3.4	  172	
2017	06	27	07	09	12 	   3.6	  148	
2017	06	27	07	08	42 	   0.9	  240	
2017	06	27	07	08	12 	   2.0	  174	
2017	06	27	07	07	42 	   3.8	   97	
2017	06	27	07	07	12 	   5.6	  124	
2017	06	27	07	06	42 	   4.0	  113	
2017	06	27	07	06	12 	   4.5	  194	
2017	06	27	07	05	42 	   4.3	  202	
2017	06	27	07	05	12 	   6.3	  140	
2017	06	27	07	04	42 	   2.7	  180	
2017	06	27	07	04	12 	   2.9	  108	
2017	06	27	07	03	42 	   2.7	  194	
2017	06	27	07	03	12 	   1.6	   82	
2017	06	27	07	02	42 	   4.0	  203	
2017	06	27	07	02	12 	   7.8	  214	
2017	06	27	07	01	42 	   1.3	  120	
2017	06	27	07	01	12 	   1.1	  143	
2017	06	27	07	00	42 	   6.9	  165	
2017	06	27	07	00	12 	   2.2	   67	
2017	06	27	06	59	42 	   2.7	  156	
2017	06	27	06	59	12 	   2.5	  231	
2017	06	27	06	58	42 	   2.2	  113	
2017	06	27	06	58	12 	   0.9	  150	
2017	06	27	06	57	42 	   1.8	  120	
2017	06	27	06	57	12 	   2.5	  180	
2017	06	27	06	56	42 	   1.6	  164	
2017	06	27	06	56	12 	   7.2	  166	
2017	06	27	06	55	42 	   0.4	  240	
2017	06	27	06	55	12 	   3.8	  130	
2017	06	27	06	54	42 	   1.1	  191	
2017	06	27	06	54	12 	   2.2	  150	
2017	06	27	06	53	42 	   3.8	  126	
2017	06	27	06	53	12 	   1.3	  171	
2017	06	27	06	52	42 	   4.0	  134	
2017	06	27	06	52	12 	   5.6	  159	
2017	06	27	06	51	42 	   6.5	  196	
2017	06	27	06	51	12 	   6.0	  207	
2017	06	27	06	50	42 	   0.9	  180	
2017	06	27	06	50	12 	   2.2	  233	
2017	06	27	06	49	42 	   5.6	  189	
2017	06	27	06	49	12 	   8.5	  174	
2017	06	27	06	48	42 	   4.5	  175	
2017	06	27	06	48	12 	   2.7	  175	
2017	06	27	06	47	42 	   2.7	  150	
2017	06	27	06	47	12 	   2.5	  164	
2017	06	27	06	46	42 	   2.2	  107	
2017	06	27	06	46	12 	   1.3	  261	
2017	06	27	06	45	42 	   3.6	  198	
2017	06	27	06	45	12 	   4.0	  132	
2017	06	27	06	44	42 	   5.8	  174	
2017	06	27	06	44	12 	   3.1	  140	
2017	06	27	06	43	42 	   1.8	  104	
2017	06	27	06	43	12 	   5.4	  192	
2017	06	27	06	42	42 	   3.4	  172	
2017	06	27	06	42	12 	   6.0	  210	
2017	06	27	06	41	42 	   4.7	  185	
2017	06	27	06	41	12 	   1.1	  127	
2017	06	27	06	40	42 	   3.4	  165	
2017	06	27	06	40	12 	   5.8	  203	
2017	06	27	06	39	42 	   2.9	  171	
2017	06	27	06	39	12 	   2.7	  199	
2017	06	27	06	38	42 	   2.2	  150	
2017	06	27	06	38	12 	   4.3	  171	
2017	06	27	06	37	42 	   8.3	  177	
2017	06	27	06	37	12 	   1.3	  150	
2017	06	27	06	36	42 	   0.4	   60	
2017	06	27	06	36	12 	   1.8	  150	
2017	06	27	06	35	42 	   1.6	  145	
2017	06	27	06	35	12 	   3.8	  201	
2017	06	27	06	34	42 	   1.8	   97	
2017	06	27	06	34	12 	   0.9	  312	
2017	06	27	06	33	42 	   2.9	  142	
2017	06	27	06	33	12 	   2.2	  191	
2017	06	27	06	32	42 	   2.5	  141	
2017	06	27	06	32	12 	   2.9	  134	
2017	06	27	06	31	42 	   3.8	  150	
2017	06	27	06	31	12 	   4.3	  146	
2017	06	27	06	30	42 	   2.9	  189	
2017	06	27	06	30	12 	   5.4	  152	
2017	06	27	06	29	42 	   2.7	  175	
2017	06	27	06	29	12 	  11.2	  136	
2017	06	27	06	28	42 	   0.4	   90	
2017	06	27	06	28	12 	   2.7	  216	
2017	06	27	06	27	42 	   4.5	  175	
2017	06	27	06	27	12 	   3.8	  163	
2017	06	27	06	26	42 	   2.7	  204	
2017	06	27	06	26	12 	   2.7	  109	
2017	06	27	06	25	42 	   5.6	  231	
2017	06	27	06	25	12 	   2.2	  150	
2017	06	27	06	24	42 	   2.7	  150	
2017	06	27	06	24	12 	   4.3	  150	
2017	06	27	06	23	42 	   1.6	  107	
2017	06	27	06	23	12 	   2.5	  123	
2017	06	27	06	22	42 	   2.0	  139	
2017	06	27	06	22	12 	   2.2	  107	
2017	06	27	06	21	42 	   2.7	  161	
2017	06	27	06	21	12 	   2.2	  143	
2017	06	27	06	20	42 	   1.3	  171	
2017	06	27	06	20	12 	   1.1	  157	
2017	06	27	06	19	42 	   3.8	  180	
2017	06	27	06	19	12 	   2.5	  141	
2017	06	27	06	18	42 	   1.1	  157	
2017	06	27	06	18	12 	   1.6	  164	
2017	06	27	06	17	42 	   1.3	  171	
2017	06	27	06	17	12 	   1.8	  277	
2017	06	27	06	16	42 	   5.4	  185	
2017	06	27	06	16	12 	   1.3	  120	
2017	06	27	06	15	42 	   6.3	  188	
2017	06	27	06	15	12 	   1.3	  180	
2017	06	27	06	14	42 	   0.4	   90	
2017	06	27	06	14	12 	   0.9	  180	
2017	06	27	06	13	42 	   1.8	  150	
2017	06	27	06	13	12 	   2.2	  240	
2017	06	27	06	12	42 	   2.9	  134	
2017	06	27	06	12	12 	   4.3	  137	
2017	06	27	06	11	42 	   2.2	  113	
2017	06	27	06	11	12 	   2.7	  156	
2017	06	27	06	10	42 	   3.4	  157	
2017	06	27	06	10	12 	   2.2	  127	
2017	06	27	06	09	42 	   2.5	  141	
2017	06	27	06	09	12 	   4.7	  132	
2017	06	27	06	08	42 	   2.5	  159	
2017	06	27	06	08	12 	   2.7	  114	
2017	06	27	06	07	42 	   2.2	  186	
2017	06	27	06	07	12 	   3.1	  145	
2017	06	27	06	06	42 	   2.5	  141	
2017	06	27	06	06	12 	   2.9	  128	
2017	06	27	06	05	42 	   2.0	  146	
2017	06	27	06	05	12 	   1.6	  155	
2017	06	27	06	04	42 	   2.7	  150	
2017	06	27	06	04	12 	   3.6	  133	
2017	06	27	06	03	42 	   2.9	  134	
2017	06	27	06	03	12 	   2.9	  148	
2017	06	27	06	02	42 	   3.6	  129	
2017	06	27	06	02	12 	   1.3	  139	
2017	06	27	06	01	42 	   1.6	  155	
2017	06	27	06	01	12 	   4.3	  159	
2017	06	27	06	00	42 	   3.1	  125	
2017	06	27	06	00	12 	   2.7	  194	
2017	06	27	05	59	42 	   2.7	  156	
2017	06	27	05	59	12 	   5.1	  134	
2017	06	27	05	58	42 	   1.8	  129	
2017	06	27	05	58	12 	   1.8	  120	
2017	06	27	05	57	42 	   2.5	  180	
2017	06	27	05	57	12 	   3.4	  169	
2017	06	27	05	56	42 	   2.9	  134	
2017	06	27	05	56	12 	   2.5	  100	
2017	06	27	05	55	42 	   1.8	  104	
2017	06	27	05	55	12 	   2.5	  141	
2017	06	27	05	54	42 	   2.5	  159	
2017	06	27	05	54	12 	   4.7	  167	
2017	06	27	05	53	42 	   2.9	  189	
2017	06	27	05	53	12 	   1.3	  150	
2017	06	27	05	52	42 	   3.8	  135	
2017	06	27	05	52	12 	   1.3	  150	
2017	06	27	05	51	42 	   1.3	  150	
2017	06	27	05	51	12 	   4.0	  148	
2017	06	27	05	50	42 	   4.0	   90	
2017	06	27	05	50	12 	   6.5	  150	
2017	06	27	05	49	42 	   2.2	  113	
2017	06	27	05	49	12 	   6.3	  135	
2017	06	27	05	48	42 	   2.0	  146	
2017	06	27	05	48	12 	   5.8	  154	
2017	06	27	05	47	42 	   5.1	  153	
2017	06	27	05	47	12 	   2.9	  153	
2017	06	27	05	46	42 	   3.1	  120	
2017	06	27	05	46	12 	   4.0	  128	
2017	06	27	05	45	42 	   2.7	  150	
2017	06	27	05	45	12 	   6.3	  130	
2017	06	27	05	44	42 	   3.6	  124	
2017	06	27	05	44	12 	   2.9	  136	
2017	06	27	05	43	42 	   2.5	  141	
2017	06	27	05	43	12 	   1.8	  141	
2017	06	27	05	42	42 	   2.5	  129	
2017	06	27	05	42	12 	   1.1	  157	
2017	06	27	05	41	42 	   1.6	  107	
2017	06	27	05	41	12 	   1.6	  135	
2017	06	27	05	40	42 	   2.0	  146	
2017	06	27	05	40	12 	   1.6	  155	
2017	06	27	05	39	42 	   1.1	  169	
2017	06	27	05	39	12 	   2.0	  186	
2017	06	27	05	38	42 	   1.1	  191	
2017	06	27	05	38	12 	   2.2	  120	
2017	06	27	05	37	42 	   1.8	  173	
2017	06	27	05	37	12 	   1.8	  150	
2017	06	27	05	36	42 	   3.4	  132	
2017	06	27	05	36	12 	   1.6	  145	
2017	06	27	05	35	42 	   2.5	  117	
2017	06	27	05	35	12 	   2.5	  201	
2017	06	27	05	34	42 	   2.7	  161	
2017	06	27	05	34	12 	   1.1	  169	
2017	06	27	05	33	42 	   1.8	  129	
2017	06	27	05	33	12 	   2.5	  134	
2017	06	27	05	32	42 	   2.5	  129	
2017	06	27	05	32	12 	   4.0	  109	
2017	06	27	05	31	42 	   1.3	   99	
2017	06	27	05	31	12 	   2.7	  109	
2017	06	27	05	30	42 	   2.2	  143	
2017	06	27	05	30	12 	   1.3	  132	
2017	06	27	05	29	42 	   3.1	  150	
2017	06	27	05	29	12 	   2.5	  141	
2017	06	27	05	28	42 	   2.0	  132	
2017	06	27	05	28	12 	   1.8	  150	
2017	06	27	05	27	42 	   2.2	  150	
2017	06	27	05	27	12 	   2.2	  150	
2017	06	27	05	26	42 	   2.2	  143	
2017	06	27	05	26	12 	   1.6	  155	
2017	06	27	05	25	42 	   1.8	  112	
2017	06	27	05	25	12 	   2.2	  150	
2017	06	27	05	24	42 	   3.1	  125	
2017	06	27	05	24	12 	   2.0	  139	
2017	06	27	05	23	42 	   1.6	  164	
2017	06	27	05	23	12 	   1.6	  180	
2017	06	27	05	22	42 	   0.4	  120	
2017	06	27	05	22	12 	   2.2	  150	
2017	06	27	05	21	42 	   2.5	  159	
2017	06	27	05	21	12 	   2.7	  150	
2017	06	27	05	20	42 	   2.9	  148	
2017	06	27	05	20	12 	   2.9	  134	
2017	06	27	05	19	42 	   2.7	  145	
2017	06	27	05	19	12 	   2.2	  150	
2017	06	27	05	18	42 	   3.4	  122	
2017	06	27	05	18	12 	   1.6	  155	
2017	06	27	05	17	42 	   2.7	  150	
2017	06	27	05	17	12 	   2.5	  147	
2017	06	27	05	16	42 	   1.8	  141	
2017	06	27	05	16	12 	   2.2	  143	
2017	06	27	05	15	42 	   2.2	  163	
2017	06	27	05	15	12 	   2.2	  120	
2017	06	27	05	14	42 	   2.5	  111	
2017	06	27	05	14	12 	   2.0	  139	
2017	06	27	05	13	42 	   2.9	  158	
2017	06	27	05	13	12 	   2.2	  120	
2017	06	27	05	12	42 	   2.5	  134	
2017	06	27	05	12	12 	   2.7	  139	
2017	06	27	05	11	42 	   4.0	  113	
2017	06	27	05	11	12 	   2.5	  141	
2017	06	27	05	10	42 	   2.5	  129	
2017	06	27	05	10	12 	   2.5	  141	
2017	06	27	05	09	42 	   3.6	  129	
2017	06	27	05	09	12 	   0.7	  180	
2017	06	27	05	08	42 	   2.7	  156	
2017	06	27	05	08	12 	   1.3	  132	
2017	06	27	05	07	42 	   2.2	  134	
2017	06	27	05	07	12 	   2.7	  194	
2017	06	27	05	06	42 	   1.8	  150	
2017	06	27	05	06	12 	   2.0	  174	
2017	06	27	05	05	42 	   1.1	  157	
2017	06	27	05	05	12 	   1.6	  135	
2017	06	27	05	04	42 	   2.2	  143	
2017	06	27	05	04	12 	   2.5	  213	
2017	06	27	05	03	42 	   1.6	  145	
2017	06	27	05	03	12 	   1.3	  132	
2017	06	27	05	02	42 	   2.2	  120	
2017	06	27	05	02	12 	   1.3	  171	
2017	06	27	05	01	42 	   1.3	  120	
2017	06	27	05	01	12 	   1.6	  164	
2017	06	27	05	00	42 	   0.4	   90	
2017	06	27	05	00	12 	   4.7	  185	
2017	06	27	04	59	42 	   2.0	  174	
2017	06	27	04	59	12 	   4.3	  210	
2017	06	27	04	58	42 	   3.8	  201	
2017	06	27	04	58	12 	   3.1	  125	
2017	06	27	04	57	42 	   2.2	  203	
2017	06	27	04	57	12 	   1.6	  180	
2017	06	27	04	56	42 	   2.9	  203	
2017	06	27	04	56	12 	   2.0	  139	
2017	06	27	04	55	42 	   3.4	  132	
2017	06	27	04	55	12 	   0.9	  228	
2017	06	27	04	54	42 	   2.9	  203	
2017	06	27	04	54	12 	   0.4	   90	
2017	06	27	04	53	42 	   4.5	  183	
2017	06	27	04	53	12 	   1.8	  150	
2017	06	27	04	52	42 	   0.4	  150	
2017	06	27	04	52	12 	   1.8	  150	
2017	06	27	04	51	42 	   1.6	  197	
2017	06	27	04	51	12 	   2.0	  132	
2017	06	27	04	50	42 	   2.7	  145	
2017	06	27	04	50	12 	   1.1	  157	
2017	06	27	04	49	42 	   1.6	  215	
2017	06	27	04	49	12 	   1.3	  132	
2017	06	27	04	48	42 	   2.7	  150	
2017	06	27	04	48	12 	   2.2	  163	
2017	06	27	04	47	42 	   4.0	  177	
2017	06	27	04	47	12 	   1.3	  189	
2017	06	27	04	46	42 	   2.9	  153	
2017	06	27	04	46	12 	   0.4	  150	
2017	06	27	04	45	42 	   1.3	  132	
2017	06	27	04	45	12 	   1.3	  132	
2017	06	27	04	44	42 	   1.3	  189	
2017	06	27	04	44	12 	   1.3	  132	
2017	06	27	04	43	42 	   1.8	  150	
2017	06	27	04	43	12 	   2.2	  169	
2017	06	27	04	42	42 	   1.3	  120	
2017	06	27	04	42	12 	   0.0	  150	
2017	06	27	04	41	42 	   2.2	  113	
2017	06	27	04	41	12 	   2.0	  116	
2017	06	27	04	40	42 	   2.0	  139	
2017	06	27	04	40	12 	   1.8	  112	
2017	06	27	04	39	42 	   2.2	  180	
2017	06	27	04	39	12 	   1.1	  143	
2017	06	27	04	38	42 	   1.8	  120	
2017	06	27	04	38	12 	   2.5	  201	
2017	06	27	04	37	42 	   2.0	  139	
2017	06	27	04	37	12 	   1.6	  164	
2017	06	27	04	36	42 	   0.4	  150	
2017	06	27	04	36	12 	   0.9	  180	
2017	06	27	04	35	42 	   3.1	  197	
2017	06	27	04	35	12 	   1.3	  132	
2017	06	27	04	34	42 	   1.6	  205	
2017	06	27	04	34	12 	   1.6	  225	
2017	06	27	04	33	42 	   0.9	  210	
2017	06	27	04	33	12 	   5.4	  208	
2017	06	27	04	32	42 	   4.5	  194	
2017	06	27	04	32	12 	   0.2	   90	
2017	06	27	04	31	42 	   1.3	  199	
2017	06	27	04	31	12 	   1.8	  129	
2017	06	27	04	30	42 	   2.5	  141	
2017	06	27	04	30	12 	   2.2	  113	
2017	06	27	04	29	42 	   0.2	  270	
2017	06	27	04	29	12 	   1.6	  135	
2017	06	27	04	28	42 	   0.4	  150	
2017	06	27	04	28	12 	   2.2	  150	
2017	06	27	04	27	42 	   0.7	  180	
2017	06	27	04	27	12 	   1.6	  135	
2017	06	27	04	26	42 	   5.8	  167	
2017	06	27	04	26	12 	   0.9	  240	
2017	06	27	04	25	42 	   1.8	  166	
2017	06	27	04	25	12 	   2.2	  113	
2017	06	27	04	24	42 	   2.0	  161	
2017	06	27	04	24	12 	   2.7	  114	
2017	06	27	04	23	42 	   4.5	  153	
2017	06	27	04	23	12 	   4.5	  157	
2017	06	27	04	22	42 	   3.6	  133	
2017	06	27	04	22	12 	   2.9	  142	
2017	06	27	04	21	42 	   1.1	  157	
2017	06	27	04	21	12 	   2.7	  204	
2017	06	27	04	20	42 	   2.2	  157	
2017	06	27	04	20	12 	   1.3	  150	
2017	06	27	04	19	42 	   2.7	  175	
2017	06	27	04	19	12 	   2.7	  126	
2017	06	27	04	18	42 	   2.2	  150	
2017	06	27	04	18	12 	   2.0	  199	
2017	06	27	04	17	42 	   1.1	  191	
2017	06	27	04	17	12 	   0.9	  104	
2017	06	27	04	16	42 	   2.9	  189	
2017	06	27	04	16	12 	   3.4	  229	
2017	06	27	04	15	42 	   3.1	  205	
2017	06	27	04	15	12 	   0.9	  210	
2017	06	27	04	14	42 	   2.0	  222	
2017	06	27	04	14	12 	   2.5	  111	
2017	06	27	04	13	42 	   0.0	  240	
2017	06	27	04	13	12 	   0.4	  180	
2017	06	27	04	12	42 	   2.0	  139	
2017	06	27	04	12	12 	   3.6	  227	
2017	06	27	04	11	42 	   1.1	  191	
2017	06	27	04	11	12 	   2.2	  240	
2017	06	27	04	10	42 	   5.4	  163	
2017	06	27	04	10	12 	   1.6	  155	
2017	06	27	04	09	42 	   0.4	   60	
2017	06	27	04	09	12 	   0.7	  180	
2017	06	27	04	08	42 	   3.4	  191	
2017	06	27	04	08	12 	   0.4	   90	
2017	06	27	04	07	42 	   2.2	  210	
2017	06	27	04	07	12 	   1.6	  197	
2017	06	27	04	06	42 	   3.6	  169	
2017	06	27	04	06	12 	   1.3	  161	
2017	06	27	04	05	42 	   2.5	  164	
2017	06	27	04	05	12 	   4.9	  129	
2017	06	27	04	04	42 	   1.8	  150	
2017	06	27	04	04	12 	   3.6	  162	
2017	06	27	04	03	42 	   2.0	   90	
2017	06	27	04	03	12 	   0.9	  194	
2017	06	27	04	02	42 	   1.3	  109	
2017	06	27	04	02	12 	   2.2	  120	
2017	06	27	04	01	42 	   1.3	  222	
2017	06	27	04	01	12 	   1.3	  161	
2017	06	27	04	00	42 	   1.8	  173	
2017	06	27	04	00	12 	   2.9	  203	
2017	06	27	03	59	42 	   3.4	  195	
2017	06	27	03	59	12 	   2.0	  116	
2017	06	27	03	58	42 	   2.9	  108	
2017	06	27	03	58	12 	   2.2	  157	
2017	06	27	03	57	42 	   3.1	  155	
2017	06	27	03	57	12 	   4.7	  150	
2017	06	27	03	56	42 	   0.0	  240	
2017	06	27	03	56	12 	   2.2	  150	
2017	06	27	03	55	42 	   2.9	  122	
2017	06	27	03	55	12 	   0.7	  132	
2017	06	27	03	54	42 	   2.5	  164	
2017	06	27	03	54	12 	   3.1	  145	
2017	06	27	03	53	42 	   3.4	  152	
2017	06	27	03	53	12 	   4.3	  137	
2017	06	27	03	52	42 	   6.7	  144	
2017	06	27	03	52	12 	   2.9	   99	
2017	06	27	03	51	42 	   6.0	  145	
2017	06	27	03	51	12 	   5.1	  160	
2017	06	27	03	50	42 	   2.0	  161	
2017	06	27	03	50	12 	   4.0	  128	
2017	06	27	03	49	42 	   1.8	  104	
2017	06	27	03	49	12 	   1.6	  164	
2017	06	27	03	48	42 	   2.2	  120	
2017	06	27	03	48	12 	   2.5	  141	
2017	06	27	03	47	42 	   3.6	  158	
2017	06	27	03	47	12 	   1.3	  161	
2017	06	27	03	46	42 	   3.1	  111	
2017	06	27	03	46	12 	   2.5	  123	
2017	06	27	03	45	42 	   2.2	  150	
2017	06	27	03	45	12 	   1.6	  225	
2017	06	27	03	44	42 	   3.1	  159	
2017	06	27	03	44	12 	   3.1	  120	
2017	06	27	03	43	42 	   2.2	  127	
2017	06	27	03	43	12 	   3.1	  145	
2017	06	27	03	42	42 	   0.7	  229	
2017	06	27	03	42	12 	   1.3	  150	
2017	06	27	03	41	42 	   3.1	  145	
2017	06	27	03	41	12 	   1.1	   67	
2017	06	27	03	40	42 	   0.9	  150	
2017	06	27	03	40	12 	   2.9	  171	
2017	06	27	03	39	42 	   1.8	   97	
2017	06	27	03	39	12 	   4.3	  146	
2017	06	27	03	38	42 	   2.7	  204	
2017	06	27	03	38	12 	   1.8	  180	
2017	06	27	03	37	42 	   5.1	  200	
2017	06	27	03	37	12 	   1.3	  132	
2017	06	27	03	36	42 	   5.4	  180	
2017	06	27	03	36	12 	   2.5	  141	
2017	06	27	03	35	42 	   2.5	  159	
2017	06	27	03	35	12 	   3.8	  177	
2017	06	27	03	34	42 	   1.6	  164	
2017	06	27	03	34	12 	   2.9	  193	
2017	06	27	03	33	42 	   1.8	  141	
2017	06	27	03	33	13 	   2.2	  174	
2017	06	27	03	32	43 	   5.6	  133	
2017	06	27	03	32	13 	   6.3	  146	
2017	06	27	03	31	43 	   1.3	  150	
2017	06	27	03	31	13 	   0.9	  228	
2017	06	27	03	30	43 	   2.9	  122	
2017	06	27	03	30	13 	   3.4	  157	


Time [Local Time: 24 hour], Temperatures [F], RH [%], Pressure [hPa], Visibility [feet], and Precipitation [Inches]

Max & min values for TT_2m and TT_10m, Tch_2m, RH, PP, and Visibility are over last hour

Max & min values for ground temperature Tg are over the last 24 hours

Meteorological wind direction dd [degrees], Wind Speed ff [mph]; winds are instantaneous values